EAG5512 SBGR-MMMX

Flight info

Callsign EAG5512
Flight time 8h 25m
Altitude 32000
Route GERTU UL201 OBEBA/N0493F340 UL201 ANLUK DCT MTU DCT ABL DCT VASIL UL423 PULOX UM549 TBG UA317 BITOR/N0488F360 UA317 TAP J13 IZT UT157 LARLO LARLO4A
Aircraft A346/H-SDE2E3FGHIJ3J4J5M1RWXY/LB1D1

Departure

Time 2026-05-07 11:20
Airport São Paulo/Guarulhos–Governor André Franco Montoro International Airport (SBGR)

Arrival

Time 2026-05-07 19:45
Airport Mexico City Benito Juárez International Airport (MMMX)
Time Latitude Longitude Altitude Speed Heading
2026-05-07 11:03 -23.42664 -46.47267 2475 ft 0 kts 255°
2026-05-07 11:09 -23.42661 -46.47255 2472 ft 4 kts 250°
2026-05-07 11:09 -23.42649 -46.47231 2471 ft 4 kts 233°
2026-05-07 11:09 -23.42632 -46.47212 2471 ft 4 kts 212°
2026-05-07 11:09 -23.42610 -46.47202 2469 ft 4 kts 187°
2026-05-07 11:10 -23.42586 -46.47204 2469 ft 4 kts 163°
2026-05-07 11:10 -23.42603 -46.47199 2470 ft 4 kts 163°
2026-05-07 11:10 -23.42616 -46.47195 2469 ft 0 kts 163°
2026-05-07 11:12 -23.42623 -46.47192 2471 ft 3 kts 163°
2026-05-07 11:12 -23.42661 -46.47180 2469 ft 7 kts 163°
2026-05-07 11:12 -23.42713 -46.47164 2471 ft 8 kts 163°
2026-05-07 11:13 -23.42772 -46.47145 2472 ft 9 kts 163°
2026-05-07 11:13 -23.42835 -46.47151 2475 ft 10 kts 215°
2026-05-07 11:13 -23.42869 -46.47225 2470 ft 14 kts 252°
2026-05-07 11:13 -23.42899 -46.47330 2470 ft 14 kts 253°
2026-05-07 11:14 -23.42928 -46.47435 2469 ft 15 kts 254°
2026-05-07 11:14 -23.42957 -46.47541 2472 ft 15 kts 254°
2026-05-07 11:14 -23.42976 -46.47612 2469 ft 15 kts 254°
2026-05-07 11:14 -23.43005 -46.47720 2473 ft 15 kts 253°
2026-05-07 11:15 -23.43034 -46.47828 2469 ft 15 kts 253°
2026-05-07 11:15 -23.43064 -46.47936 2469 ft 15 kts 253°
2026-05-07 11:15 -23.43093 -46.48044 2473 ft 15 kts 253°
2026-05-07 11:15 -23.43123 -46.48154 2472 ft 15 kts 253°
2026-05-07 11:16 -23.43153 -46.48266 2470 ft 15 kts 253°
2026-05-07 11:16 -23.43176 -46.48348 2469 ft 6 kts 248°
2026-05-07 11:16 -23.43203 -46.48377 2469 ft 6 kts 201°
2026-05-07 11:16 -23.43248 -46.48380 2471 ft 7 kts 169°
2026-05-07 11:17 -23.43273 -46.48373 2471 ft 0 kts 165°
2026-05-07 11:17 -23.43299 -46.48365 2473 ft 7 kts 165°
2026-05-07 11:18 -23.43372 -46.48343 2471 ft 13 kts 162°
2026-05-07 11:18 -23.43408 -46.48265 2469 ft 12 kts 78°
2026-05-07 11:18 -23.43401 -46.48235 2469 ft 0 kts 75°
2026-05-07 11:19 -23.43338 -46.48002 2470 ft 66 kts 73°
2026-05-07 11:19 -23.43146 -46.47287 2470 ft 128 kts 73°
2026-05-07 11:19 -23.42842 -46.46174 2472 ft 177 kts 73°
2026-05-07 11:19 -23.42476 -46.44813 2792 ft 192 kts 73°
2026-05-07 11:20 -23.42064 -46.43394 3373 ft 200 kts 72°
2026-05-07 11:20 -23.41618 -46.41936 4021 ft 204 kts 72°
2026-05-07 11:20 -23.41197 -46.40501 4724 ft 199 kts 72°
2026-05-07 11:20 -23.40775 -46.39019 4962 ft 210 kts 72°
2026-05-07 11:21 -23.40328 -46.37456 5209 ft 222 kts 70°
2026-05-07 11:21 -23.39469 -46.36043 5413 ft 233 kts 34°
2026-05-07 11:21 -23.37907 -46.35509 5623 ft 246 kts 356°
2026-05-07 11:21 -23.36262 -46.36123 5887 ft 262 kts 322°
2026-05-07 11:22 -23.35011 -46.37641 6234 ft 274 kts 310°
2026-05-07 11:22 -23.33818 -46.39282 6718 ft 278 kts 310°
2026-05-07 11:22 -23.32589 -46.40930 7282 ft 281 kts 311°
2026-05-07 11:22 -23.31344 -46.42579 7864 ft 283 kts 311°
2026-05-07 11:23 -23.30095 -46.44219 8400 ft 285 kts 311°
2026-05-07 11:23 -23.28818 -46.45889 8907 ft 288 kts 311°
2026-05-07 11:23 -23.27526 -46.47575 9424 ft 291 kts 311°
2026-05-07 11:23 -23.26221 -46.49273 9915 ft 293 kts 311°
2026-05-07 11:24 -23.24905 -46.50983 10396 ft 296 kts 311°
2026-05-07 11:24 -23.23557 -46.52735 10670 ft 308 kts 311°
2026-05-07 11:24 -23.22168 -46.54539 10909 ft 320 kts 311°
2026-05-07 11:24 -23.20688 -46.56458 11146 ft 333 kts 311°
2026-05-07 11:25 -23.19192 -46.58399 11357 ft 345 kts 311°
2026-05-07 11:25 -23.17623 -46.60434 11594 ft 357 kts 311°
2026-05-07 11:25 -23.15999 -46.62538 11810 ft 369 kts 311°
2026-05-07 11:25 -23.14322 -46.64712 12025 ft 381 kts 311°
2026-05-07 11:26 -23.12595 -46.66951 12314 ft 389 kts 311°
2026-05-07 11:26 -23.10842 -46.69222 12795 ft 393 kts 311°
2026-05-07 11:26 -23.09076 -46.71508 13325 ft 395 kts 311°
2026-05-07 11:26 -23.07299 -46.73806 13793 ft 399 kts 311°
2026-05-07 11:27 -23.05504 -46.76128 14285 ft 402 kts 311°
2026-05-07 11:27 -23.03692 -46.78469 14734 ft 406 kts 310°
2026-05-07 11:27 -23.01887 -46.80801 15185 ft 409 kts 310°
2026-05-07 11:27 -23.00053 -46.83170 15641 ft 412 kts 310°
2026-05-07 11:28 -22.98194 -46.85569 16077 ft 415 kts 310°
2026-05-07 11:28 -22.96322 -46.87983 16517 ft 419 kts 310°
2026-05-07 11:28 -22.94440 -46.90409 16939 ft 422 kts 310°
2026-05-07 11:28 -22.92542 -46.92855 17355 ft 425 kts 310°
2026-05-07 11:29 -22.90626 -46.95324 17785 ft 428 kts 310°
2026-05-07 11:29 -22.88699 -46.97804 18199 ft 431 kts 310°
2026-05-07 11:29 -22.86750 -47.00312 18584 ft 434 kts 310°
2026-05-07 11:29 -22.84796 -47.02824 19001 ft 436 kts 310°
2026-05-07 11:30 -22.82833 -47.05346 19428 ft 438 kts 310°
2026-05-07 11:30 -22.80861 -47.07880 19837 ft 440 kts 309°
2026-05-07 11:30 -22.78877 -47.10427 20223 ft 443 kts 309°
2026-05-07 11:30 -22.76885 -47.12984 20618 ft 445 kts 309°
2026-05-07 11:31 -22.74883 -47.15553 21005 ft 447 kts 309°
2026-05-07 11:31 -22.72870 -47.18135 21382 ft 449 kts 309°
2026-05-07 11:31 -22.70877 -47.20689 21742 ft 450 kts 309°
2026-05-07 11:31 -22.68845 -47.23293 22102 ft 452 kts 309°
2026-05-07 11:32 -22.64756 -47.28526 22788 ft 456 kts 308°
2026-05-07 11:32 -22.62698 -47.31159 23125 ft 458 kts 308°
2026-05-07 11:32 -22.60634 -47.33797 23455 ft 460 kts 308°
2026-05-07 11:33 -22.58556 -47.36452 23767 ft 462 kts 308°
2026-05-07 11:33 -22.56471 -47.39113 24081 ft 464 kts 308°
2026-05-07 11:33 -22.54377 -47.41786 24378 ft 466 kts 308°
2026-05-07 11:33 -22.52303 -47.44431 24669 ft 468 kts 308°
2026-05-07 11:34 -22.50189 -47.47126 24951 ft 470 kts 308°
2026-05-07 11:34 -22.48069 -47.49827 25231 ft 472 kts 308°
2026-05-07 11:34 -22.45937 -47.52540 25511 ft 474 kts 308°
2026-05-07 11:34 -22.43789 -47.55265 25782 ft 476 kts 308°
2026-05-07 11:35 -22.41542 -47.57912 26048 ft 479 kts 310°
2026-05-07 11:35 -22.39220 -47.60517 26308 ft 481 kts 311°
2026-05-07 11:35 -22.36881 -47.63130 26575 ft 483 kts 311°
2026-05-07 11:35 -22.34531 -47.65751 26830 ft 485 kts 311°
2026-05-07 11:36 -22.32178 -47.68375 27087 ft 487 kts 311°
2026-05-07 11:36 -22.29814 -47.71011 27339 ft 489 kts 311°
2026-05-07 11:36 -22.27441 -47.73655 27585 ft 491 kts 310°
2026-05-07 11:36 -22.25056 -47.76311 27830 ft 493 kts 310°
2026-05-07 11:37 -22.22662 -47.78975 28079 ft 495 kts 310°
2026-05-07 11:37 -22.20256 -47.81653 28321 ft 497 kts 310°
2026-05-07 11:37 -22.17845 -47.84333 28629 ft 497 kts 310°
2026-05-07 11:37 -22.15442 -47.87003 29007 ft 495 kts 310°
2026-05-07 11:38 -22.13070 -47.89636 29365 ft 494 kts 310°
2026-05-07 11:38 -22.10669 -47.92301 29717 ft 494 kts 310°
2026-05-07 11:38 -22.08277 -47.94955 30058 ft 493 kts 309°
2026-05-07 11:38 -22.05880 -47.97614 30396 ft 492 kts 309°
2026-05-07 11:39 -22.03495 -48.00259 30697 ft 493 kts 309°
2026-05-07 11:39 -22.01105 -48.02909 30961 ft 494 kts 309°
2026-05-07 11:39 -21.98694 -48.05579 31206 ft 495 kts 309°
2026-05-07 11:39 -21.96287 -48.08245 31461 ft 496 kts 309°
2026-05-07 11:40 -21.93877 -48.10910 31720 ft 497 kts 309°
2026-05-07 11:40 -21.91457 -48.13585 31978 ft 498 kts 309°
2026-05-07 11:40 -21.89035 -48.16260 32115 ft 501 kts 309°
2026-05-07 11:41 -21.84107 -48.21712 32115 ft 511 kts 309°
2026-05-07 11:41 -21.79136 -48.27203 32100 ft 512 kts 309°
2026-05-07 11:42 -21.74150 -48.32696 32117 ft 512 kts 309°
2026-05-07 11:42 -21.69173 -48.38174 32103 ft 512 kts 309°
2026-05-07 11:43 -21.64216 -48.43625 32103 ft 511 kts 309°
2026-05-07 11:43 -21.59233 -48.49098 32100 ft 511 kts 309°
2026-05-07 11:44 -21.54246 -48.54570 32102 ft 511 kts 309°
2026-05-07 11:44 -21.49260 -48.60034 32100 ft 511 kts 310°
2026-05-07 11:45 -21.44271 -48.65497 32099 ft 511 kts 310°
2026-05-07 11:45 -21.39309 -48.70923 32101 ft 511 kts 310°
2026-05-07 11:46 -21.34322 -48.76372 32101 ft 511 kts 310°
2026-05-07 11:46 -21.29325 -48.81824 32100 ft 511 kts 310°
2026-05-07 11:47 -21.24370 -48.87222 32101 ft 511 kts 310°
2026-05-07 11:47 -21.19382 -48.92659 32100 ft 511 kts 310°
2026-05-07 11:48 -21.14392 -48.98111 32099 ft 511 kts 310°
2026-05-07 11:48 -21.09399 -49.03556 32100 ft 511 kts 310°
2026-05-07 11:49 -21.04403 -49.08997 32099 ft 510 kts 310°
2026-05-07 11:49 -20.99457 -49.14376 32091 ft 510 kts 310°
2026-05-07 11:50 -20.94464 -49.19799 32091 ft 510 kts 310°
2026-05-07 11:50 -20.89475 -49.25213 32092 ft 510 kts 310°
2026-05-07 11:51 -20.84484 -49.30623 32091 ft 510 kts 310°
2026-05-07 11:51 -20.79492 -49.36032 32090 ft 510 kts 310°
2026-05-07 11:52 -20.74496 -49.41437 32091 ft 510 kts 310°
2026-05-07 11:52 -20.69525 -49.46809 32091 ft 510 kts 310°
2026-05-07 11:53 -20.64530 -49.52203 32090 ft 511 kts 310°
2026-05-07 11:53 -20.59521 -49.57606 32091 ft 511 kts 310°
2026-05-07 11:54 -20.54503 -49.63013 32092 ft 511 kts 310°
2026-05-07 11:54 -20.49488 -49.68412 32090 ft 511 kts 310°
2026-05-07 11:55 -20.44470 -49.73810 32090 ft 511 kts 310°
2026-05-07 11:55 -20.39482 -49.79169 32092 ft 511 kts 310°
2026-05-07 11:56 -20.34453 -49.84566 32091 ft 511 kts 310°
2026-05-07 11:56 -20.29434 -49.89948 32090 ft 511 kts 311°
2026-05-07 11:57 -20.24413 -49.95327 32091 ft 511 kts 311°
2026-05-07 11:57 -20.19371 -50.00722 32091 ft 512 kts 311°
2026-05-07 11:58 -20.14375 -50.06063 32090 ft 511 kts 311°
2026-05-07 11:58 -20.09342 -50.11438 32091 ft 512 kts 311°
2026-05-07 11:59 -20.04307 -50.16807 32092 ft 512 kts 311°
2026-05-07 11:59 -19.99285 -50.22159 32090 ft 512 kts 311°
2026-05-07 12:00 -19.95102 -50.26618 32091 ft 512 kts 311°
2026-05-07 12:00 -19.90061 -50.31986 32094 ft 512 kts 311°
2026-05-07 12:01 -19.84209 -50.38209 32100 ft 512 kts 311°
2026-05-07 12:01 -19.80017 -50.42658 32099 ft 512 kts 311°
2026-05-07 12:02 -19.74968 -50.48012 32099 ft 512 kts 311°
2026-05-07 12:02 -19.69916 -50.53363 32101 ft 512 kts 311°
2026-05-07 12:03 -19.64822 -50.58661 32100 ft 513 kts 313°
2026-05-07 12:03 -19.59558 -50.63791 32101 ft 513 kts 314°
2026-05-07 12:04 -19.54287 -50.68909 32100 ft 513 kts 314°
2026-05-07 12:04 -19.49048 -50.73990 32098 ft 513 kts 314°
2026-05-07 12:05 -19.43776 -50.79097 32098 ft 513 kts 314°
2026-05-07 12:05 -19.38497 -50.84208 32100 ft 513 kts 314°
2026-05-07 12:06 -19.33214 -50.89318 32101 ft 513 kts 314°
2026-05-07 12:06 -19.27942 -50.94414 32099 ft 513 kts 314°
2026-05-07 12:07 -19.22660 -50.99512 32100 ft 513 kts 314°
2026-05-07 12:07 -19.17387 -51.04595 32097 ft 513 kts 314°
2026-05-07 12:08 -19.12139 -51.09651 32091 ft 513 kts 314°
2026-05-07 12:08 -19.06863 -51.14741 32091 ft 513 kts 314°
2026-05-07 12:09 -19.01574 -51.19841 32091 ft 513 kts 314°
2026-05-07 12:09 -18.96289 -51.24930 32090 ft 513 kts 314°
2026-05-07 12:10 -18.91034 -51.29984 32090 ft 513 kts 314°
2026-05-07 12:10 -18.85752 -51.35063 32088 ft 511 kts 315°
2026-05-07 12:11 -18.80492 -51.40108 32078 ft 511 kts 315°
2026-05-07 12:11 -18.75225 -51.45156 32081 ft 511 kts 315°
2026-05-07 12:12 -18.69959 -51.50200 32074 ft 511 kts 315°
2026-05-07 12:12 -18.64682 -51.55251 32073 ft 511 kts 315°
2026-05-07 12:13 -18.59402 -51.60299 32073 ft 512 kts 315°
2026-05-07 12:13 -18.54121 -51.65343 32072 ft 512 kts 315°
2026-05-07 12:14 -18.48862 -51.70359 32071 ft 512 kts 315°
2026-05-07 12:14 -18.43574 -51.75402 32073 ft 512 kts 315°
2026-05-07 12:15 -18.38280 -51.80449 32072 ft 513 kts 315°
2026-05-07 12:15 -18.32981 -51.85491 32071 ft 513 kts 315°
2026-05-07 12:16 -18.27671 -51.90537 32072 ft 513 kts 315°
2026-05-07 12:16 -18.22366 -51.95574 32072 ft 513 kts 315°
2026-05-07 12:17 -18.17353 -52.00329 32072 ft 514 kts 315°
2026-05-07 12:17 -18.12075 -52.05331 32065 ft 514 kts 315°
2026-05-07 12:18 -18.06756 -52.10366 32062 ft 514 kts 315°
2026-05-07 12:18 -18.01440 -52.15393 32064 ft 514 kts 315°
2026-05-07 12:19 -17.96164 -52.20457 32062 ft 513 kts 314°
2026-05-07 12:19 -17.90943 -52.25582 32062 ft 513 kts 314°
2026-05-07 12:20 -17.85712 -52.30708 32063 ft 513 kts 314°
2026-05-07 12:20 -17.80482 -52.35817 32064 ft 513 kts 314°
2026-05-07 12:21 -17.75245 -52.40924 32051 ft 513 kts 314°
2026-05-07 12:21 -17.70004 -52.46028 32032 ft 513 kts 314°
2026-05-07 12:22 -17.64798 -52.51094 32027 ft 513 kts 314°
2026-05-07 12:22 -17.59554 -52.56192 32026 ft 513 kts 314°
2026-05-07 12:23 -17.54306 -52.61292 32027 ft 513 kts 314°
2026-05-07 12:23 -17.49053 -52.66391 32026 ft 513 kts 314°
2026-05-07 12:24 -17.43797 -52.71487 32027 ft 513 kts 314°
2026-05-07 12:24 -17.38548 -52.76573 32033 ft 513 kts 314°
2026-05-07 12:25 -17.33331 -52.81625 32035 ft 513 kts 314°
2026-05-07 12:25 -17.28077 -52.86707 32033 ft 513 kts 314°
2026-05-07 12:26 -17.22815 -52.91794 32036 ft 513 kts 314°
2026-05-07 12:26 -17.17562 -52.96867 32035 ft 513 kts 314°
2026-05-07 12:27 -17.12312 -53.01934 32034 ft 513 kts 314°
2026-05-07 12:27 -17.07084 -53.06974 32035 ft 514 kts 315°
2026-05-07 12:28 -17.01825 -53.12043 32035 ft 514 kts 315°
2026-05-07 12:28 -16.96568 -53.17102 32035 ft 514 kts 315°
2026-05-07 12:29 -16.91305 -53.22162 32034 ft 514 kts 315°
2026-05-07 12:29 -16.86039 -53.27220 32035 ft 514 kts 315°
2026-05-07 12:30 -16.80781 -53.32289 32036 ft 514 kts 314°
2026-05-07 12:30 -16.75538 -53.37373 32033 ft 514 kts 314°
2026-05-07 12:31 -16.70288 -53.42454 32027 ft 514 kts 315°
2026-05-07 12:31 -16.65059 -53.47506 32025 ft 515 kts 315°
2026-05-07 12:32 -16.59801 -53.52582 32026 ft 515 kts 315°
2026-05-07 12:32 -16.54534 -53.57658 32024 ft 515 kts 315°
2026-05-07 12:33 -16.46609 -53.65248 32027 ft 515 kts 315°
2026-05-07 12:33 -16.41299 -53.70282 32026 ft 516 kts 315°
2026-05-07 12:34 -16.35990 -53.75313 32026 ft 516 kts 315°
2026-05-07 12:34 -16.30711 -53.80317 32027 ft 516 kts 315°
2026-05-07 12:35 -16.25396 -53.85356 32027 ft 516 kts 315°
2026-05-07 12:35 -16.20084 -53.90386 32022 ft 516 kts 315°
2026-05-07 12:36 -16.14766 -53.95416 32016 ft 516 kts 315°
2026-05-07 12:36 -16.09433 -54.00453 32016 ft 516 kts 315°
2026-05-07 12:37 -16.04138 -54.05450 32018 ft 516 kts 315°
2026-05-07 12:37 -15.98821 -54.10464 32017 ft 516 kts 315°
2026-05-07 12:38 -15.93389 -54.15368 32013 ft 517 kts 318°
2026-05-07 12:38 -15.87831 -54.20148 32008 ft 517 kts 318°
2026-05-07 12:39 -15.82319 -54.24876 32002 ft 517 kts 318°
2026-05-07 12:39 -15.76766 -54.29637 31990 ft 517 kts 318°
2026-05-07 12:40 -15.71212 -54.34396 31989 ft 517 kts 318°
2026-05-07 12:40 -15.65652 -54.39157 31989 ft 517 kts 318°
2026-05-07 12:41 -15.60128 -54.43883 31994 ft 517 kts 318°
2026-05-07 12:41 -15.54567 -54.48638 31988 ft 517 kts 318°
2026-05-07 12:42 -15.49010 -54.53386 31987 ft 517 kts 318°
2026-05-07 12:42 -15.43458 -54.58127 31993 ft 517 kts 318°
2026-05-07 12:43 -15.37898 -54.62870 31988 ft 517 kts 318°
2026-05-07 12:43 -15.32378 -54.67576 31981 ft 516 kts 318°
2026-05-07 12:44 -15.26827 -54.72306 31982 ft 516 kts 318°
2026-05-07 12:44 -15.21248 -54.77056 31980 ft 516 kts 318°
2026-05-07 12:45 -15.15729 -54.81751 31979 ft 516 kts 318°
2026-05-07 12:45 -15.10168 -54.86478 31982 ft 516 kts 318°
2026-05-07 12:46 -15.05548 -54.90403 31980 ft 516 kts 318°
2026-05-07 12:46 -14.99996 -54.95116 31983 ft 516 kts 318°
2026-05-07 12:47 -14.94414 -54.99850 31974 ft 516 kts 318°
2026-05-07 12:47 -14.88851 -55.04564 31979 ft 517 kts 318°
2026-05-07 12:48 -14.83380 -55.09318 31971 ft 516 kts 316°
2026-05-07 12:48 -14.77989 -55.14228 31973 ft 516 kts 316°
2026-05-07 12:49 -14.72595 -55.19133 31972 ft 516 kts 316°
2026-05-07 12:49 -14.67191 -55.24021 31971 ft 516 kts 316°
2026-05-07 12:50 -14.61776 -55.28906 31969 ft 516 kts 316°
2026-05-07 12:50 -14.56356 -55.33791 31972 ft 517 kts 316°
2026-05-07 12:51 -14.50932 -55.38675 31971 ft 517 kts 316°
2026-05-07 12:51 -14.45500 -55.43563 31968 ft 517 kts 316°
2026-05-07 12:52 -14.40103 -55.48415 31974 ft 517 kts 317°
2026-05-07 12:52 -14.34667 -55.53299 31968 ft 517 kts 316°
2026-05-07 12:53 -14.29240 -55.58171 31977 ft 517 kts 317°
2026-05-07 12:53 -14.23797 -55.63053 31983 ft 518 kts 317°
2026-05-07 12:54 -14.18514 -55.68088 31979 ft 517 kts 314°
2026-05-07 12:54 -14.13360 -55.73265 31984 ft 517 kts 313°
2026-05-07 12:55 -14.08241 -55.78407 31978 ft 517 kts 313°
2026-05-07 12:55 -14.03050 -55.83610 31980 ft 517 kts 313°
2026-05-07 12:56 -13.97928 -55.88739 31982 ft 517 kts 313°
2026-05-07 12:56 -13.92759 -55.93910 31980 ft 517 kts 314°
2026-05-07 12:57 -13.87596 -55.99071 31982 ft 517 kts 314°
2026-05-07 12:57 -13.82431 -56.04230 31978 ft 517 kts 314°
2026-05-07 12:58 -13.77266 -56.09384 31982 ft 517 kts 314°
2026-05-07 12:58 -13.72103 -56.14542 31975 ft 517 kts 314°
2026-05-07 12:59 -13.66934 -56.19706 31973 ft 517 kts 314°
2026-05-07 12:59 -13.61798 -56.24828 31970 ft 517 kts 314°
2026-05-07 13:00 -13.56627 -56.29980 31976 ft 517 kts 314°
2026-05-07 13:00 -13.51458 -56.35127 31978 ft 517 kts 314°
2026-05-07 13:01 -13.46290 -56.40269 31979 ft 517 kts 314°
2026-05-07 13:01 -13.41114 -56.45415 31981 ft 517 kts 314°
2026-05-07 13:02 -13.35938 -56.50558 31981 ft 517 kts 314°
2026-05-07 13:02 -13.30764 -56.55696 31979 ft 517 kts 314°
2026-05-07 13:03 -13.25582 -56.60838 31979 ft 517 kts 314°
2026-05-07 13:03 -13.20404 -56.65973 31985 ft 517 kts 314°
2026-05-07 13:04 -13.15259 -56.71073 31990 ft 517 kts 314°
2026-05-07 13:04 -13.10075 -56.76209 31989 ft 517 kts 314°
2026-05-07 13:05 -13.04890 -56.81341 31991 ft 517 kts 314°
2026-05-07 13:05 -12.99705 -56.86470 31989 ft 517 kts 314°
2026-05-07 13:06 -12.94517 -56.91599 31991 ft 517 kts 314°
2026-05-07 13:06 -12.89330 -56.96725 31987 ft 517 kts 314°
2026-05-07 13:07 -12.84145 -57.01842 31988 ft 517 kts 314°
2026-05-07 13:07 -12.78955 -57.06961 32000 ft 517 kts 314°
2026-05-07 13:08 -12.73793 -57.12049 31987 ft 517 kts 314°
2026-05-07 13:08 -12.68607 -57.17164 32001 ft 517 kts 314°
2026-05-07 13:09 -12.63423 -57.22280 31992 ft 517 kts 314°
2026-05-07 13:09 -12.58225 -57.27403 32002 ft 517 kts 315°
2026-05-07 13:10 -12.53034 -57.32513 32007 ft 517 kts 315°
2026-05-07 13:10 -12.47837 -57.37624 32007 ft 517 kts 315°
2026-05-07 13:11 -12.42640 -57.42734 32008 ft 517 kts 315°
2026-05-07 13:11 -12.37481 -57.47802 32006 ft 517 kts 315°
2026-05-07 13:12 -12.32286 -57.52900 32008 ft 517 kts 315°
2026-05-07 13:12 -12.27082 -57.58004 32008 ft 518 kts 315°
2026-05-07 13:13 -12.21887 -57.63104 32008 ft 517 kts 315°
2026-05-07 13:13 -12.16686 -57.68208 32008 ft 517 kts 315°
2026-05-07 13:14 -12.11489 -57.73301 32007 ft 517 kts 315°
2026-05-07 13:14 -12.06317 -57.78366 32012 ft 517 kts 315°
2026-05-07 13:15 -12.01114 -57.83456 32016 ft 517 kts 315°
2026-05-07 13:15 -11.95911 -57.88543 32017 ft 517 kts 315°
2026-05-07 13:16 -11.90705 -57.93630 32017 ft 517 kts 315°
2026-05-07 13:16 -11.85495 -57.98719 32016 ft 517 kts 315°
2026-05-07 13:17 -11.80285 -58.03804 32017 ft 517 kts 315°
2026-05-07 13:17 -11.75117 -58.08847 32016 ft 517 kts 315°
2026-05-07 13:18 -11.69906 -58.13928 32017 ft 517 kts 315°
2026-05-07 13:18 -11.64699 -58.19002 32017 ft 517 kts 315°
2026-05-07 13:19 -11.59493 -58.24073 32017 ft 517 kts 315°
2026-05-07 13:19 -11.54284 -58.29144 32017 ft 517 kts 315°
2026-05-07 13:20 -11.49070 -58.34217 32019 ft 517 kts 315°
2026-05-07 13:20 -11.43858 -58.39287 32032 ft 517 kts 315°
2026-05-07 13:21 -11.38647 -58.44350 32035 ft 517 kts 315°
2026-05-07 13:21 -11.33473 -58.49377 32035 ft 517 kts 315°
2026-05-07 13:22 -11.28258 -58.54440 32035 ft 517 kts 315°
2026-05-07 13:22 -11.23051 -58.59492 32036 ft 517 kts 315°
2026-05-07 13:23 -11.17839 -58.64547 32036 ft 517 kts 315°
2026-05-07 13:23 -11.12624 -58.69602 32035 ft 517 kts 315°
2026-05-07 13:24 -11.07411 -58.74653 32035 ft 516 kts 315°
2026-05-07 13:24 -11.02234 -58.79667 32035 ft 516 kts 315°
2026-05-07 13:25 -10.97027 -58.84705 32036 ft 516 kts 315°
2026-05-07 13:25 -10.91819 -58.89743 32035 ft 516 kts 315°
2026-05-07 13:26 -10.86606 -58.94783 32036 ft 516 kts 315°
2026-05-07 13:26 -10.81390 -58.99823 32034 ft 516 kts 315°
2026-05-07 13:27 -10.76168 -59.04867 32035 ft 516 kts 315°
2026-05-07 13:27 -10.70981 -59.09873 32040 ft 517 kts 315°
2026-05-07 13:28 -10.65760 -59.14910 32034 ft 516 kts 316°
2026-05-07 13:28 -10.60540 -59.19942 32035 ft 516 kts 316°
2026-05-07 13:29 -10.55321 -59.24968 32035 ft 516 kts 316°
2026-05-07 13:29 -10.50105 -59.30000 32033 ft 516 kts 315°
2026-05-07 13:30 -10.44943 -59.35031 32035 ft 517 kts 315°
2026-05-07 13:30 -10.39753 -59.40092 32035 ft 517 kts 315°
2026-05-07 13:31 -10.34557 -59.45148 32028 ft 517 kts 315°
2026-05-07 13:31 -10.29353 -59.50210 32027 ft 517 kts 315°
2026-05-07 13:32 -10.24160 -59.55254 32027 ft 516 kts 315°
2026-05-07 13:32 -10.18958 -59.60305 32027 ft 517 kts 315°
2026-05-07 13:33 -10.13756 -59.65353 32026 ft 517 kts 315°
2026-05-07 13:33 -10.09432 -59.69548 32027 ft 517 kts 316°
2026-05-07 13:34 -10.01616 -59.77127 32026 ft 517 kts 316°
2026-05-07 13:35 -9.96448 -59.82135 32025 ft 517 kts 316°
2026-05-07 13:35 -9.91235 -59.87184 32026 ft 517 kts 316°
2026-05-07 13:36 -9.86019 -59.92234 32027 ft 517 kts 316°
2026-05-07 13:36 -9.80813 -59.97272 32034 ft 517 kts 316°
2026-05-07 13:37 -9.75590 -60.02323 32035 ft 517 kts 316°
2026-05-07 13:37 -9.70384 -60.07357 32028 ft 517 kts 316°
2026-05-07 13:38 -9.65170 -60.12395 32026 ft 517 kts 316°
2026-05-07 13:38 -9.59991 -60.17398 32027 ft 517 kts 316°
2026-05-07 13:39 -9.54776 -60.22433 32026 ft 517 kts 316°
2026-05-07 13:39 -9.49556 -60.27471 32026 ft 517 kts 316°
2026-05-07 13:40 -9.44342 -60.32501 32026 ft 517 kts 316°
2026-05-07 13:40 -9.39127 -60.37529 32027 ft 517 kts 316°
2026-05-07 13:41 -9.33919 -60.42550 32020 ft 516 kts 316°
2026-05-07 13:41 -9.28713 -60.47565 32018 ft 516 kts 316°
2026-05-07 13:42 -9.23536 -60.52549 32016 ft 517 kts 316°
2026-05-07 13:42 -9.18313 -60.57578 32017 ft 517 kts 316°
2026-05-07 13:43 -9.13101 -60.62592 32017 ft 516 kts 316°
2026-05-07 13:43 -9.07879 -60.67614 32017 ft 516 kts 316°
2026-05-07 13:44 -9.02669 -60.72622 32009 ft 516 kts 316°
2026-05-07 13:44 -8.97458 -60.77630 32008 ft 516 kts 316°
2026-05-07 13:45 -8.92249 -60.82632 32008 ft 516 kts 316°
2026-05-07 13:45 -8.87033 -60.87641 32008 ft 516 kts 316°
2026-05-07 13:46 -8.81851 -60.92614 32008 ft 516 kts 316°
2026-05-07 13:46 -8.76635 -60.97618 32008 ft 516 kts 316°
2026-05-07 13:47 -8.71424 -61.02615 32008 ft 516 kts 316°
2026-05-07 13:47 -8.66211 -61.07611 32008 ft 516 kts 316°
2026-05-07 13:48 -8.60990 -61.12613 32007 ft 516 kts 316°
2026-05-07 13:48 -8.55762 -61.17618 32008 ft 516 kts 316°
2026-05-07 13:49 -8.50544 -61.22613 32008 ft 516 kts 316°
2026-05-07 13:49 -8.45357 -61.27575 32008 ft 516 kts 316°
2026-05-07 13:50 -8.40129 -61.32572 31999 ft 516 kts 316°
2026-05-07 13:50 -8.34908 -61.37566 32001 ft 516 kts 316°
2026-05-07 13:51 -8.29677 -61.42569 31998 ft 516 kts 316°
2026-05-07 13:51 -8.24485 -61.47529 31998 ft 516 kts 316°
2026-05-07 13:52 -8.19262 -61.52515 31995 ft 516 kts 316°
2026-05-07 13:52 -8.14037 -61.57501 32001 ft 516 kts 316°
2026-05-07 13:53 -8.08811 -61.62484 31994 ft 516 kts 316°
2026-05-07 13:53 -8.03581 -61.67470 32000 ft 516 kts 316°
2026-05-07 13:54 -7.98353 -61.72452 31999 ft 516 kts 316°
2026-05-07 13:54 -7.93121 -61.77435 31999 ft 516 kts 316°
2026-05-07 13:55 -7.87895 -61.82412 32001 ft 516 kts 316°
2026-05-07 13:55 -7.82692 -61.87365 31998 ft 516 kts 316°
2026-05-07 13:56 -7.77460 -61.92343 32001 ft 516 kts 316°
2026-05-07 13:56 -7.72223 -61.97324 31997 ft 516 kts 316°
2026-05-07 13:57 -7.67028 -62.02264 31998 ft 516 kts 316°
2026-05-07 13:57 -7.61793 -62.07240 32000 ft 516 kts 316°
2026-05-07 13:58 -7.56553 -62.12218 32001 ft 517 kts 316°
2026-05-07 13:58 -7.51315 -62.17194 31998 ft 517 kts 316°
2026-05-07 13:59 -7.46077 -62.22167 32001 ft 517 kts 316°
2026-05-07 13:59 -7.40840 -62.27138 31997 ft 516 kts 316°
2026-05-07 14:00 -7.35605 -62.32105 31994 ft 517 kts 316°
2026-05-07 14:00 -7.30362 -62.37078 31993 ft 516 kts 316°
2026-05-07 14:01 -7.25160 -62.42010 31992 ft 516 kts 316°
2026-05-07 14:01 -7.19921 -62.46975 31993 ft 517 kts 317°
2026-05-07 14:02 -7.14678 -62.51942 31991 ft 517 kts 317°
2026-05-07 14:02 -7.09431 -62.56911 31986 ft 516 kts 317°
2026-05-07 14:03 -7.04184 -62.61877 31992 ft 517 kts 317°
2026-05-07 14:03 -6.98939 -62.66839 31993 ft 517 kts 317°
2026-05-07 14:04 -6.93725 -62.71771 31992 ft 517 kts 317°
2026-05-07 14:04 -6.88485 -62.76737 31992 ft 517 kts 317°
2026-05-07 14:05 -6.83243 -62.81702 31988 ft 517 kts 317°
2026-05-07 14:05 -6.77999 -62.86663 31994 ft 517 kts 317°
2026-05-07 14:06 -6.72758 -62.91619 31986 ft 517 kts 317°
2026-05-07 14:06 -6.67514 -62.96576 31991 ft 517 kts 317°
2026-05-07 14:07 -6.62271 -63.01530 31989 ft 517 kts 317°
2026-05-07 14:07 -6.57026 -63.06484 31989 ft 517 kts 317°
2026-05-07 14:08 -6.51776 -63.11442 31987 ft 517 kts 317°
2026-05-07 14:08 -6.46518 -63.16405 31992 ft 518 kts 317°
2026-05-07 14:09 -6.41258 -63.21368 31990 ft 518 kts 317°
2026-05-07 14:09 -6.36034 -63.26297 31988 ft 518 kts 317°
2026-05-07 14:10 -6.30772 -63.31260 31989 ft 518 kts 317°
2026-05-07 14:10 -6.25503 -63.36227 31992 ft 519 kts 317°
2026-05-07 14:11 -6.20230 -63.41196 31991 ft 519 kts 317°
2026-05-07 14:11 -6.14954 -63.46164 31992 ft 519 kts 317°
2026-05-07 14:12 -6.09678 -63.51132 31989 ft 519 kts 317°
2026-05-07 14:12 -6.04402 -63.56104 31993 ft 519 kts 317°
2026-05-07 14:13 -5.99170 -63.61038 31986 ft 520 kts 317°
2026-05-07 14:13 -5.93891 -63.66011 31989 ft 520 kts 317°
2026-05-07 14:14 -5.88611 -63.70981 31990 ft 520 kts 317°
2026-05-07 14:14 -5.83331 -63.75950 31987 ft 520 kts 317°
2026-05-07 14:15 -5.78048 -63.80920 31990 ft 520 kts 317°
2026-05-07 14:15 -5.72749 -63.85902 31992 ft 520 kts 317°
2026-05-07 14:16 -5.67457 -63.90877 31990 ft 520 kts 317°
2026-05-07 14:16 -5.62177 -63.95838 31986 ft 520 kts 317°
2026-05-07 14:17 -5.56896 -64.00797 31987 ft 520 kts 317°
2026-05-07 14:17 -5.51647 -64.05727 31987 ft 520 kts 317°
2026-05-07 14:18 -5.46355 -64.10698 31990 ft 520 kts 317°
2026-05-07 14:18 -5.41062 -64.15665 31988 ft 520 kts 317°
2026-05-07 14:19 -5.36663 -64.19788 31990 ft 520 kts 317°
2026-05-07 14:19 -5.31376 -64.24744 31990 ft 520 kts 317°
2026-05-07 14:20 -5.25935 -64.29540 31989 ft 520 kts 319°
2026-05-07 14:20 -5.19559 -64.35061 31991 ft 520 kts 320°
2026-05-07 14:21 -5.14956 -64.39044 31986 ft 520 kts 319°
2026-05-07 14:21 -5.09516 -64.43751 31980 ft 520 kts 319°
2026-05-07 14:22 -5.03105 -64.49300 31983 ft 520 kts 319°
2026-05-07 14:22 -4.98550 -64.53241 31981 ft 520 kts 319°
2026-05-07 14:23 -4.93074 -64.57978 31979 ft 519 kts 319°
2026-05-07 14:23 -4.87625 -64.62692 31981 ft 519 kts 319°
2026-05-07 14:24 -4.82149 -64.67427 31986 ft 519 kts 319°
2026-05-07 14:24 -4.76662 -64.72171 31985 ft 519 kts 319°
2026-05-07 14:25 -4.71184 -64.76906 31989 ft 519 kts 319°
2026-05-07 14:25 -4.65704 -64.81641 31987 ft 519 kts 319°
2026-05-07 14:26 -4.60219 -64.86379 31992 ft 519 kts 319°
2026-05-07 14:26 -4.54776 -64.91081 31993 ft 519 kts 319°
2026-05-07 14:27 -4.49300 -64.95809 31987 ft 519 kts 319°
2026-05-07 14:27 -4.43836 -65.00526 31988 ft 519 kts 319°
2026-05-07 14:28 -4.38360 -65.05252 31987 ft 519 kts 319°
2026-05-07 14:28 -4.32889 -65.09970 31992 ft 519 kts 319°
2026-05-07 14:29 -4.27412 -65.14694 31987 ft 519 kts 319°
2026-05-07 14:29 -4.21937 -65.19423 31987 ft 519 kts 319°
2026-05-07 14:30 -4.16468 -65.24146 31993 ft 519 kts 319°
2026-05-07 14:30 -4.10993 -65.28870 31991 ft 519 kts 319°
2026-05-07 14:31 -4.05548 -65.33565 31997 ft 519 kts 319°
2026-05-07 14:31 -4.00074 -65.38284 31999 ft 518 kts 319°
2026-05-07 14:32 -3.94612 -65.42991 32002 ft 518 kts 319°
2026-05-07 14:32 -3.89148 -65.47700 31997 ft 518 kts 319°
2026-05-07 14:33 -3.83681 -65.52411 32000 ft 518 kts 319°
2026-05-07 14:33 -3.78213 -65.57120 32001 ft 518 kts 319°
2026-05-07 14:34 -3.72741 -65.61833 31999 ft 518 kts 319°
2026-05-07 14:34 -3.67278 -65.66536 31998 ft 518 kts 319°
2026-05-07 14:35 -3.61840 -65.71215 31997 ft 518 kts 319°
2026-05-07 14:35 -3.56378 -65.75926 31991 ft 518 kts 318°
2026-05-07 14:36 -3.51180 -65.80933 32002 ft 518 kts 315°
2026-05-07 14:36 -3.46087 -65.86042 31995 ft 518 kts 315°
2026-05-07 14:37 -3.40996 -65.91148 32005 ft 518 kts 315°
2026-05-07 14:37 -3.33338 -65.98816 32011 ft 519 kts 315°
2026-05-07 14:38 -3.28229 -66.03929 32016 ft 519 kts 315°
2026-05-07 14:38 -3.23156 -66.09003 32017 ft 519 kts 315°
2026-05-07 14:39 -3.18046 -66.14115 32017 ft 519 kts 315°
2026-05-07 14:39 -3.12937 -66.19224 32016 ft 518 kts 315°
2026-05-07 14:40 -3.07830 -66.24331 32017 ft 518 kts 315°
2026-05-07 14:40 -3.02713 -66.29446 32017 ft 519 kts 315°
2026-05-07 14:41 -2.97599 -66.34558 32018 ft 519 kts 315°
2026-05-07 14:41 -2.92483 -66.39671 32016 ft 519 kts 315°
2026-05-07 14:42 -2.87399 -66.44751 32017 ft 519 kts 315°
2026-05-07 14:42 -2.82273 -66.49872 32017 ft 519 kts 315°
2026-05-07 14:43 -2.77156 -66.54983 32017 ft 519 kts 315°
2026-05-07 14:43 -2.72036 -66.60095 32016 ft 519 kts 315°
2026-05-07 14:44 -2.66915 -66.65206 32018 ft 519 kts 315°
2026-05-07 14:44 -2.61801 -66.70317 32017 ft 519 kts 315°
2026-05-07 14:45 -2.56682 -66.75431 32017 ft 519 kts 315°
2026-05-07 14:45 -2.51597 -66.80506 32017 ft 519 kts 315°
2026-05-07 14:46 -2.46479 -66.85612 32017 ft 519 kts 315°
2026-05-07 14:46 -2.41366 -66.90711 32017 ft 518 kts 315°
2026-05-07 14:47 -2.36249 -66.95810 32017 ft 518 kts 315°
2026-05-07 14:47 -2.31111 -67.00873 32016 ft 518 kts 317°
2026-05-07 14:48 -2.25760 -67.05716 32017 ft 519 kts 317°
2026-05-07 14:48 -2.20384 -67.10539 32017 ft 519 kts 318°
2026-05-07 14:49 -2.15004 -67.15365 32017 ft 518 kts 318°
2026-05-07 14:49 -2.09637 -67.20180 32017 ft 518 kts 318°
2026-05-07 14:50 -2.04267 -67.24998 32017 ft 518 kts 318°
2026-05-07 14:50 -1.98900 -67.29814 32017 ft 518 kts 318°
2026-05-07 14:51 -1.93579 -67.34587 32017 ft 517 kts 318°
2026-05-07 14:51 -1.88226 -67.39390 32017 ft 517 kts 318°
2026-05-07 14:52 -1.82872 -67.44192 32017 ft 517 kts 318°
2026-05-07 14:52 -1.77514 -67.48999 32017 ft 517 kts 318°
2026-05-07 14:53 -1.72158 -67.53803 32017 ft 517 kts 318°
2026-05-07 14:53 -1.66805 -67.58603 32017 ft 517 kts 318°
2026-05-07 14:54 -1.61444 -67.63411 32017 ft 517 kts 318°
2026-05-07 14:54 -1.56085 -67.68216 32017 ft 517 kts 318°
2026-05-07 14:55 -1.50764 -67.72988 32017 ft 517 kts 318°
2026-05-07 14:55 -1.45406 -67.77791 32010 ft 517 kts 318°
2026-05-07 14:56 -1.40047 -67.82596 32008 ft 517 kts 318°
2026-05-07 14:56 -1.34690 -67.87398 32008 ft 517 kts 318°
2026-05-07 14:57 -1.29330 -67.92202 32008 ft 517 kts 318°
2026-05-07 14:57 -1.23973 -67.97004 32008 ft 517 kts 318°
2026-05-07 14:58 -1.18655 -68.01771 32009 ft 516 kts 318°
2026-05-07 14:58 -1.13303 -68.06569 32008 ft 516 kts 318°
2026-05-07 14:59 -1.07952 -68.11364 32008 ft 516 kts 318°
2026-05-07 14:59 -1.02608 -68.16152 32008 ft 516 kts 318°
2026-05-07 15:00 -0.97265 -68.20940 32008 ft 515 kts 318°
2026-05-07 15:00 -0.91922 -68.25727 32008 ft 515 kts 318°
2026-05-07 15:01 -0.86573 -68.30520 32008 ft 515 kts 318°
2026-05-07 15:01 -0.81265 -68.35276 32008 ft 515 kts 318°
2026-05-07 15:02 -0.75919 -68.40066 32008 ft 515 kts 318°
2026-05-07 15:02 -0.70576 -68.44854 32008 ft 515 kts 318°
2026-05-07 15:03 -0.65236 -68.49638 32008 ft 515 kts 318°
2026-05-07 15:03 -0.59894 -68.54424 32008 ft 515 kts 318°
2026-05-07 15:04 -0.54542 -68.59218 32008 ft 515 kts 318°
2026-05-07 15:04 -0.49226 -68.63981 32008 ft 515 kts 318°
2026-05-07 15:05 -0.43889 -68.68762 32008 ft 515 kts 318°
2026-05-07 15:05 -0.39408 -68.72776 32008 ft 515 kts 318°
2026-05-07 15:06 -0.34067 -68.77561 32008 ft 515 kts 318°
2026-05-07 15:06 -0.28732 -68.82339 32008 ft 514 kts 318°
2026-05-07 15:07 -0.23434 -68.87084 32002 ft 514 kts 318°
2026-05-07 15:07 -0.18103 -68.91860 31999 ft 514 kts 318°
2026-05-07 15:08 -0.12765 -68.96641 31998 ft 514 kts 318°
2026-05-07 15:08 -0.07439 -69.01412 32000 ft 514 kts 318°
2026-05-07 15:09 -0.02105 -69.06190 31996 ft 514 kts 318°
2026-05-07 15:09 0.03223 -69.10962 31996 ft 514 kts 318°
2026-05-07 15:10 0.08551 -69.15734 32001 ft 514 kts 317°
2026-05-07 15:10 0.13891 -69.20516 31995 ft 514 kts 317°
2026-05-07 15:11 0.19192 -69.25264 32001 ft 514 kts 317°
2026-05-07 15:11 0.24528 -69.30044 31998 ft 514 kts 317°
2026-05-07 15:12 0.29859 -69.34819 31991 ft 514 kts 317°
2026-05-07 15:12 0.35190 -69.39594 31986 ft 514 kts 317°
2026-05-07 15:13 0.40518 -69.44366 31992 ft 514 kts 317°
2026-05-07 15:13 0.45845 -69.49137 31986 ft 514 kts 317°
2026-05-07 15:14 0.51138 -69.53877 31987 ft 514 kts 317°
2026-05-07 15:14 0.56468 -69.58649 31993 ft 514 kts 317°
2026-05-07 15:15 0.61798 -69.63420 31992 ft 514 kts 317°
2026-05-07 15:15 0.67110 -69.68216 31987 ft 514 kts 316°
2026-05-07 15:16 0.72252 -69.73197 31990 ft 514 kts 315°
2026-05-07 15:16 0.77378 -69.78191 31987 ft 514 kts 315°
2026-05-07 15:17 0.82508 -69.83185 31984 ft 514 kts 315°
2026-05-07 15:17 0.87644 -69.88181 31983 ft 514 kts 315°
2026-05-07 15:18 0.92775 -69.93169 31977 ft 514 kts 315°
2026-05-07 15:18 0.97901 -69.98153 31982 ft 514 kts 315°
2026-05-07 15:19 1.02996 -70.03106 31980 ft 514 kts 315°
2026-05-07 15:19 1.08138 -70.08105 31980 ft 514 kts 315°
2026-05-07 15:20 1.13268 -70.13092 31979 ft 514 kts 315°
2026-05-07 15:20 1.18411 -70.18090 31982 ft 514 kts 315°
2026-05-07 15:21 1.23471 -70.23159 31977 ft 514 kts 312°
2026-05-07 15:21 1.28041 -70.28606 31980 ft 514 kts 308°
2026-05-07 15:22 1.32457 -70.34234 31985 ft 514 kts 307°
2026-05-07 15:22 1.36868 -70.39864 31991 ft 514 kts 307°
2026-05-07 15:23 1.41285 -70.45496 31987 ft 514 kts 307°
2026-05-07 15:23 1.45702 -70.51122 31989 ft 513 kts 307°
2026-05-07 15:24 1.50120 -70.56749 31992 ft 514 kts 307°
2026-05-07 15:24 1.54505 -70.62334 31988 ft 514 kts 307°
2026-05-07 15:25 1.58921 -70.67959 31992 ft 514 kts 307°
2026-05-07 15:25 1.63346 -70.73596 31988 ft 514 kts 307°
2026-05-07 15:26 1.67763 -70.79223 32001 ft 514 kts 307°
2026-05-07 15:26 1.72179 -70.84848 32001 ft 514 kts 307°
2026-05-07 15:27 1.76572 -70.90445 32000 ft 513 kts 307°
2026-05-07 15:27 1.80985 -70.96069 32001 ft 514 kts 307°
2026-05-07 15:28 1.85398 -71.01692 32007 ft 514 kts 307°
2026-05-07 15:28 1.89809 -71.07313 32008 ft 513 kts 307°
2026-05-07 15:29 1.94226 -71.12943 32008 ft 514 kts 307°
2026-05-07 15:29 1.98645 -71.18576 32008 ft 513 kts 307°
2026-05-07 15:30 2.03070 -71.24216 32016 ft 514 kts 307°
2026-05-07 15:30 2.07485 -71.29847 32017 ft 514 kts 307°
2026-05-07 15:31 2.11876 -71.35445 32017 ft 514 kts 307°
2026-05-07 15:31 2.16291 -71.41076 32017 ft 514 kts 307°
2026-05-07 15:32 2.20718 -71.46721 32025 ft 514 kts 307°
2026-05-07 15:32 2.25132 -71.52350 32026 ft 514 kts 307°
2026-05-07 15:33 2.29548 -71.57984 32026 ft 514 kts 307°
2026-05-07 15:33 2.33937 -71.63583 32026 ft 514 kts 307°
2026-05-07 15:34 2.38354 -71.69219 32026 ft 514 kts 307°
2026-05-07 15:34 2.42773 -71.74858 32032 ft 514 kts 307°
2026-05-07 15:35 2.47189 -71.80494 32035 ft 514 kts 307°
2026-05-07 15:35 2.51577 -71.86094 32035 ft 514 kts 307°
2026-05-07 15:36 2.55993 -71.91730 32035 ft 514 kts 307°
2026-05-07 15:36 2.60407 -71.97366 32035 ft 514 kts 307°
2026-05-07 15:37 2.64827 -72.03009 32035 ft 514 kts 307°
2026-05-07 15:37 2.69241 -72.08646 32035 ft 515 kts 307°
2026-05-07 15:38 2.73664 -72.14295 32039 ft 515 kts 307°
2026-05-07 15:38 2.78083 -72.19939 32035 ft 515 kts 307°
2026-05-07 15:39 2.82475 -72.25550 32035 ft 515 kts 307°
2026-05-07 15:39 2.86921 -72.31231 32035 ft 515 kts 307°
2026-05-07 15:40 2.91314 -72.36844 32039 ft 514 kts 307°
2026-05-07 15:40 2.95730 -72.42488 32035 ft 515 kts 307°
2026-05-07 15:41 3.00146 -72.48133 32035 ft 515 kts 307°
2026-05-07 15:41 3.04564 -72.53781 32035 ft 515 kts 307°
2026-05-07 15:42 3.08982 -72.59428 32035 ft 515 kts 307°
2026-05-07 15:42 3.13402 -72.65080 32035 ft 515 kts 307°
2026-05-07 15:43 3.17823 -72.70737 32042 ft 515 kts 307°
2026-05-07 15:43 3.22245 -72.76394 32044 ft 515 kts 307°
2026-05-07 15:44 3.26640 -72.82015 32043 ft 515 kts 307°
2026-05-07 15:44 3.31067 -72.87680 32044 ft 516 kts 307°
2026-05-07 15:45 3.35488 -72.93338 32044 ft 515 kts 307°
2026-05-07 15:45 3.39909 -72.98997 32044 ft 515 kts 307°
2026-05-07 15:46 3.46536 -73.07483 32049 ft 515 kts 307°
2026-05-07 15:47 3.50953 -73.13138 32044 ft 515 kts 307°
2026-05-07 15:47 3.55366 -73.18789 32049 ft 515 kts 307°
2026-05-07 15:48 3.59774 -73.24436 32052 ft 514 kts 307°
2026-05-07 15:48 3.64192 -73.30096 32053 ft 514 kts 307°
2026-05-07 15:49 3.68600 -73.35745 32053 ft 514 kts 307°
2026-05-07 15:49 3.73009 -73.41396 32056 ft 514 kts 307°
2026-05-07 15:50 3.77416 -73.47045 32061 ft 514 kts 307°
2026-05-07 15:50 3.81797 -73.52662 32062 ft 514 kts 307°
2026-05-07 15:51 3.86205 -73.58315 32064 ft 514 kts 307°
2026-05-07 15:51 3.89874 -73.63019 32064 ft 514 kts 307°
2026-05-07 15:52 3.94276 -73.68668 32081 ft 514 kts 307°
2026-05-07 15:52 3.98682 -73.74321 32090 ft 513 kts 307°
2026-05-07 15:53 4.03077 -73.79961 32090 ft 513 kts 307°
2026-05-07 15:53 4.07475 -73.85605 32097 ft 513 kts 307°
2026-05-07 15:54 4.11874 -73.91252 32103 ft 513 kts 307°
2026-05-07 15:54 4.16254 -73.96878 32132 ft 513 kts 307°
2026-05-07 15:55 4.20644 -74.02516 32156 ft 513 kts 307°
2026-05-07 15:55 4.25034 -74.08156 32190 ft 513 kts 307°
2026-05-07 15:56 4.29423 -74.13794 32232 ft 512 kts 307°
2026-05-07 15:56 4.33811 -74.19432 32236 ft 512 kts 307°
2026-05-07 15:57 4.38179 -74.25047 32230 ft 512 kts 307°
2026-05-07 15:57 4.42562 -74.30682 32236 ft 512 kts 307°
2026-05-07 15:58 4.46954 -74.36329 32231 ft 512 kts 307°
2026-05-07 15:58 4.51340 -74.41971 32222 ft 513 kts 307°
2026-05-07 15:59 4.55701 -74.47581 32193 ft 512 kts 307°
2026-05-07 15:59 4.60089 -74.53225 32175 ft 512 kts 307°
2026-05-07 16:00 4.64475 -74.58868 32156 ft 513 kts 307°
2026-05-07 16:00 4.68871 -74.64524 32117 ft 513 kts 307°
2026-05-07 16:01 4.73263 -74.70174 32101 ft 513 kts 307°
2026-05-07 16:01 4.77658 -74.75817 32133 ft 513 kts 308°
2026-05-07 16:02 4.82326 -74.81248 32113 ft 514 kts 311°
2026-05-07 16:02 4.87076 -74.86608 32084 ft 514 kts 311°
2026-05-07 16:03 4.91798 -74.91935 32049 ft 513 kts 311°
2026-05-07 16:03 4.96554 -74.97304 32058 ft 513 kts 311°
2026-05-07 16:04 5.01296 -75.02660 32063 ft 513 kts 311°
2026-05-07 16:04 5.06045 -75.08026 32071 ft 513 kts 311°
2026-05-07 16:05 5.10798 -75.13395 32118 ft 514 kts 311°
2026-05-07 16:05 5.15370 -75.18563 32133 ft 514 kts 311°
2026-05-07 16:05 5.17749 -75.21255 32288 ft 515 kts 311°
2026-05-07 16:06 5.20154 -75.23979 32600 ft 513 kts 311°
2026-05-07 16:06 5.22492 -75.26628 32935 ft 511 kts 311°
2026-05-07 16:06 5.24846 -75.29291 33269 ft 509 kts 311°
2026-05-07 16:06 5.27193 -75.31947 33573 ft 507 kts 311°
2026-05-07 16:07 5.29532 -75.34592 33872 ft 505 kts 311°
2026-05-07 16:07 5.31859 -75.37224 34164 ft 504 kts 311°
2026-05-07 16:07 5.34184 -75.39855 34445 ft 502 kts 311°
2026-05-07 16:07 5.36501 -75.42475 34731 ft 500 kts 311°
2026-05-07 16:08 5.38806 -75.45084 35006 ft 499 kts 311°
2026-05-07 16:08 5.41110 -75.47690 35259 ft 498 kts 311°
2026-05-07 16:08 5.43409 -75.50292 35510 ft 497 kts 311°
2026-05-07 16:08 5.45700 -75.52885 35764 ft 496 kts 311°
2026-05-07 16:09 5.47989 -75.55476 36026 ft 494 kts 311°
2026-05-07 16:09 5.50268 -75.58056 36255 ft 493 kts 311°
2026-05-07 16:09 5.52548 -75.60637 36456 ft 493 kts 311°
2026-05-07 16:09 5.54824 -75.63214 36657 ft 492 kts 311°
2026-05-07 16:10 5.57096 -75.65787 36871 ft 491 kts 311°
2026-05-07 16:10 5.59330 -75.68316 37141 ft 489 kts 311°
2026-05-07 16:10 5.61583 -75.70866 37479 ft 485 kts 311°
2026-05-07 16:10 5.63816 -75.73395 37831 ft 482 kts 311°
2026-05-07 16:11 5.66034 -75.75906 38152 ft 479 kts 311°
2026-05-07 16:11 5.70445 -75.80903 38175 ft 477 kts 311°
2026-05-07 16:12 5.74760 -75.85980 38156 ft 477 kts 310°
2026-05-07 16:12 5.79013 -75.91129 38133 ft 477 kts 310°
2026-05-07 16:13 5.83237 -75.96228 38123 ft 477 kts 310°
2026-05-07 16:13 5.87490 -76.01349 38111 ft 477 kts 310°
2026-05-07 16:14 5.91748 -76.06471 38101 ft 477 kts 310°
2026-05-07 16:14 5.96011 -76.11599 38076 ft 477 kts 310°
2026-05-07 16:15 6.00270 -76.16721 38064 ft 477 kts 310°
2026-05-07 16:15 6.04535 -76.21853 38053 ft 477 kts 310°
2026-05-07 16:16 6.08792 -76.26977 38041 ft 477 kts 310°
2026-05-07 16:16 6.13024 -76.32071 38027 ft 477 kts 310°
2026-05-07 16:17 6.17284 -76.37201 38023 ft 477 kts 310°
2026-05-07 16:17 6.21543 -76.42331 38033 ft 477 kts 310°
2026-05-07 16:18 6.25799 -76.47459 38035 ft 477 kts 310°
2026-05-07 16:18 6.30062 -76.52596 37999 ft 477 kts 310°
2026-05-07 16:19 6.34322 -76.57732 37990 ft 477 kts 310°
2026-05-07 16:19 6.38556 -76.62838 37989 ft 477 kts 310°
2026-05-07 16:20 6.42805 -76.67962 37960 ft 476 kts 310°
2026-05-07 16:20 6.47054 -76.73088 37943 ft 477 kts 310°
2026-05-07 16:21 6.51303 -76.78217 37924 ft 477 kts 310°
2026-05-07 16:21 6.55557 -76.83352 37926 ft 477 kts 310°
2026-05-07 16:22 6.59808 -76.88485 37924 ft 477 kts 310°
2026-05-07 16:22 6.64061 -76.93623 37922 ft 477 kts 310°
2026-05-07 16:23 6.68314 -76.98762 37924 ft 477 kts 310°
2026-05-07 16:23 6.72566 -77.03901 37922 ft 477 kts 310°
2026-05-07 16:24 6.76788 -77.09005 37923 ft 477 kts 310°
2026-05-07 16:24 6.81038 -77.14145 37923 ft 477 kts 310°
2026-05-07 16:25 6.85285 -77.19283 37922 ft 476 kts 310°
2026-05-07 16:25 6.89527 -77.24416 37923 ft 476 kts 310°
2026-05-07 16:26 6.93767 -77.29548 37923 ft 476 kts 310°
2026-05-07 16:26 6.98008 -77.34683 37921 ft 476 kts 310°
2026-05-07 16:27 7.02213 -77.39777 37924 ft 476 kts 310°
2026-05-07 16:27 7.06450 -77.44909 37929 ft 476 kts 310°
2026-05-07 16:28 7.10691 -77.50049 37931 ft 475 kts 310°
2026-05-07 16:28 7.14920 -77.55176 37933 ft 475 kts 310°
2026-05-07 16:29 7.19144 -77.60298 37933 ft 475 kts 310°
2026-05-07 16:29 7.23366 -77.65418 37930 ft 474 kts 310°
2026-05-07 16:30 7.27581 -77.70532 37929 ft 474 kts 310°
2026-05-07 16:30 7.31796 -77.75645 37931 ft 473 kts 310°
2026-05-07 16:31 7.36004 -77.80750 37934 ft 473 kts 310°
2026-05-07 16:31 7.40169 -77.85817 37935 ft 472 kts 310°
2026-05-07 16:32 7.44378 -77.90972 37932 ft 472 kts 310°
2026-05-07 16:32 7.48530 -77.96059 37932 ft 472 kts 310°
2026-05-07 16:33 7.52712 -78.01178 37930 ft 472 kts 310°
2026-05-07 16:33 7.56889 -78.06291 37926 ft 472 kts 310°
2026-05-07 16:34 7.61069 -78.11409 37933 ft 472 kts 310°
2026-05-07 16:34 7.65247 -78.16526 37934 ft 472 kts 310°
2026-05-07 16:35 7.69424 -78.21643 37935 ft 472 kts 310°
2026-05-07 16:35 7.73607 -78.26770 37931 ft 472 kts 310°
2026-05-07 16:36 7.77786 -78.31893 37934 ft 472 kts 310°
2026-05-07 16:36 7.81935 -78.36981 37925 ft 472 kts 310°
2026-05-07 16:37 7.85437 -78.41277 37926 ft 472 kts 310°
2026-05-07 16:37 7.89582 -78.46363 37925 ft 472 kts 310°
2026-05-07 16:38 7.93760 -78.51493 37919 ft 472 kts 310°
2026-05-07 16:38 7.97933 -78.56616 37918 ft 472 kts 310°
2026-05-07 16:39 8.02110 -78.61749 37923 ft 472 kts 310°
2026-05-07 16:39 8.06286 -78.66880 37922 ft 472 kts 310°
2026-05-07 16:40 8.10459 -78.72011 37922 ft 472 kts 310°
2026-05-07 16:40 8.14636 -78.77146 37922 ft 473 kts 310°
2026-05-07 16:41 8.18818 -78.82291 37924 ft 473 kts 310°
2026-05-07 16:41 8.23003 -78.87441 37922 ft 474 kts 310°
2026-05-07 16:42 8.27162 -78.92561 37922 ft 474 kts 310°
2026-05-07 16:42 8.31349 -78.97717 37922 ft 474 kts 310°
2026-05-07 16:43 8.35539 -79.02879 37923 ft 474 kts 310°
2026-05-07 16:43 8.39730 -79.08044 37922 ft 475 kts 310°
2026-05-07 16:44 8.43924 -79.13214 37922 ft 475 kts 310°
2026-05-07 16:44 8.48118 -79.18387 37923 ft 475 kts 310°
2026-05-07 16:45 8.52336 -79.23590 37920 ft 476 kts 310°
2026-05-07 16:45 8.56549 -79.28789 37908 ft 476 kts 310°
2026-05-07 16:46 8.60756 -79.33982 37905 ft 476 kts 310°
2026-05-07 16:46 8.64957 -79.39169 37904 ft 476 kts 310°
2026-05-07 16:47 8.69158 -79.44356 37911 ft 476 kts 310°
2026-05-07 16:47 8.73289 -79.49602 37912 ft 477 kts 307°
2026-05-07 16:48 8.76950 -79.55211 37911 ft 477 kts 301°
2026-05-07 16:48 8.80017 -79.61134 37909 ft 478 kts 295°
2026-05-07 16:49 8.82499 -79.67415 37904 ft 479 kts 290°
2026-05-07 16:49 8.84656 -79.73814 37903 ft 480 kts 290°
2026-05-07 16:50 8.86785 -79.80169 37902 ft 480 kts 290°
2026-05-07 16:50 8.88942 -79.86606 37906 ft 479 kts 290°
2026-05-07 16:51 8.91085 -79.92996 37904 ft 479 kts 290°
2026-05-07 16:51 8.93216 -79.99353 37909 ft 479 kts 290°
2026-05-07 16:52 8.95359 -80.05748 37911 ft 480 kts 290°
2026-05-07 16:52 8.97507 -80.12163 37912 ft 480 kts 290°
2026-05-07 16:53 8.99652 -80.18574 37913 ft 480 kts 290°
2026-05-07 16:53 9.01796 -80.24986 37912 ft 480 kts 290°
2026-05-07 16:54 9.03926 -80.31363 37926 ft 480 kts 290°
2026-05-07 16:54 9.06067 -80.37772 37932 ft 480 kts 290°
2026-05-07 16:55 9.08207 -80.44184 37929 ft 480 kts 290°
2026-05-07 16:55 9.10348 -80.50599 37933 ft 480 kts 290°
2026-05-07 16:56 9.12488 -80.57019 37934 ft 480 kts 290°
2026-05-07 16:56 9.15696 -80.66648 37933 ft 481 kts 290°
2026-05-07 16:57 9.17834 -80.73071 37932 ft 481 kts 290°
2026-05-07 16:57 9.19956 -80.79447 37930 ft 481 kts 290°
2026-05-07 16:58 9.22092 -80.85869 37934 ft 481 kts 290°
2026-05-07 16:58 9.24232 -80.92303 37934 ft 481 kts 290°
2026-05-07 16:59 9.26371 -80.98743 37933 ft 481 kts 290°
2026-05-07 16:59 9.28566 -81.05144 37940 ft 481 kts 291°
2026-05-07 17:00 9.30805 -81.11488 37937 ft 481 kts 291°
2026-05-07 17:00 9.33056 -81.17872 37946 ft 481 kts 291°
2026-05-07 17:01 9.35304 -81.24266 37940 ft 481 kts 291°
2026-05-07 17:01 9.37551 -81.30664 37943 ft 481 kts 291°
2026-05-07 17:02 9.39793 -81.37055 37945 ft 481 kts 291°
2026-05-07 17:02 9.42021 -81.43413 37941 ft 481 kts 291°
2026-05-07 17:03 9.44264 -81.49816 37953 ft 481 kts 291°
2026-05-07 17:03 9.46503 -81.56210 37947 ft 481 kts 291°
2026-05-07 17:04 9.48745 -81.62618 37957 ft 481 kts 291°
2026-05-07 17:04 9.50981 -81.69016 37953 ft 481 kts 291°
2026-05-07 17:05 9.53214 -81.75406 37954 ft 481 kts 291°
2026-05-07 17:05 9.55449 -81.81802 37954 ft 481 kts 291°
2026-05-07 17:06 9.57681 -81.88201 37950 ft 481 kts 291°
2026-05-07 17:06 9.59913 -81.94601 37960 ft 481 kts 291°
2026-05-07 17:07 9.62129 -82.00963 37955 ft 481 kts 291°
2026-05-07 17:07 9.64359 -82.07363 37962 ft 481 kts 291°
2026-05-07 17:08 9.66590 -82.13771 37956 ft 481 kts 291°
2026-05-07 17:08 9.68817 -82.20175 37961 ft 481 kts 291°
2026-05-07 17:09 9.71044 -82.26581 37971 ft 481 kts 291°
2026-05-07 17:09 9.73273 -82.32996 37963 ft 481 kts 291°
2026-05-07 17:10 9.75498 -82.39401 37968 ft 481 kts 291°
2026-05-07 17:10 9.77726 -82.45819 37977 ft 481 kts 291°
2026-05-07 17:11 9.79936 -82.52187 37979 ft 481 kts 291°
2026-05-07 17:11 9.82147 -82.58608 37977 ft 482 kts 290°
2026-05-07 17:12 9.84226 -82.65073 37977 ft 482 kts 289°
2026-05-07 17:12 9.86296 -82.71565 37978 ft 482 kts 289°
2026-05-07 17:13 9.88374 -82.78043 37985 ft 482 kts 289°
2026-05-07 17:13 9.90459 -82.84526 37986 ft 483 kts 289°
2026-05-07 17:14 9.92546 -82.91015 37987 ft 483 kts 289°
2026-05-07 17:14 9.94752 -82.97480 37988 ft 483 kts 293°
2026-05-07 17:15 9.97515 -83.03683 37988 ft 482 kts 298°
2026-05-07 17:15 10.00873 -83.09561 37987 ft 481 kts 304°
2026-05-07 17:16 10.04592 -83.15156 37988 ft 481 kts 306°
2026-05-07 17:16 10.08358 -83.20765 37988 ft 481 kts 306°
2026-05-07 17:17 10.12133 -83.26397 37992 ft 481 kts 306°
2026-05-07 17:17 10.15896 -83.32019 37993 ft 481 kts 306°
2026-05-07 17:18 10.19663 -83.37652 38000 ft 482 kts 305°
2026-05-07 17:18 10.23433 -83.43292 38008 ft 482 kts 305°
2026-05-07 17:19 10.27171 -83.48890 38017 ft 482 kts 305°
2026-05-07 17:19 10.30937 -83.54529 38024 ft 482 kts 305°
2026-05-07 17:20 10.34707 -83.60178 38033 ft 482 kts 305°
2026-05-07 17:20 10.38474 -83.65824 38041 ft 482 kts 305°
2026-05-07 17:21 10.42239 -83.71467 38048 ft 482 kts 305°
2026-05-07 17:21 10.45976 -83.77073 38051 ft 482 kts 305°
2026-05-07 17:22 10.49929 -83.82581 38050 ft 481 kts 310°
2026-05-07 17:22 10.54243 -83.87783 38045 ft 481 kts 311°
2026-05-07 17:23 10.58592 -83.92956 38043 ft 481 kts 311°
2026-05-07 17:23 10.62200 -83.97254 38042 ft 481 kts 311°
2026-05-07 17:24 10.66544 -84.02435 38050 ft 481 kts 311°
2026-05-07 17:24 10.70838 -84.07681 38052 ft 482 kts 309°
2026-05-07 17:25 10.74191 -84.12216 38046 ft 482 kts 308°
2026-05-07 17:25 10.78880 -84.18614 38046 ft 482 kts 308°
2026-05-07 17:26 10.82893 -84.24083 38068 ft 482 kts 308°
2026-05-07 17:26 10.86912 -84.29560 38045 ft 482 kts 308°
2026-05-07 17:27 10.90928 -84.35034 38021 ft 482 kts 308°
2026-05-07 17:27 10.94918 -84.40474 38009 ft 482 kts 308°
2026-05-07 17:28 10.98934 -84.45952 38003 ft 482 kts 308°
2026-05-07 17:28 11.02951 -84.51432 37998 ft 482 kts 308°
2026-05-07 17:29 11.06887 -84.56974 37989 ft 483 kts 305°
2026-05-07 17:29 11.10595 -84.62691 37987 ft 483 kts 304°
2026-05-07 17:30 11.14293 -84.68420 37979 ft 483 kts 304°
2026-05-07 17:30 11.17967 -84.74106 37977 ft 483 kts 304°
2026-05-07 17:31 11.21664 -84.79828 37958 ft 483 kts 304°
2026-05-07 17:31 11.25363 -84.85554 37966 ft 483 kts 304°
2026-05-07 17:32 11.29062 -84.91282 37970 ft 483 kts 304°
2026-05-07 17:32 11.32769 -84.97024 37965 ft 483 kts 304°
2026-05-07 17:33 11.36475 -85.02771 37953 ft 484 kts 304°
2026-05-07 17:33 11.40152 -85.08474 37957 ft 484 kts 304°
2026-05-07 17:34 11.43847 -85.14209 37944 ft 484 kts 304°
2026-05-07 17:34 11.47548 -85.19954 37941 ft 484 kts 304°
2026-05-07 17:35 11.51251 -85.25705 37943 ft 484 kts 304°
2026-05-07 17:35 11.54951 -85.31453 37940 ft 484 kts 304°
2026-05-07 17:36 11.58712 -85.37161 37944 ft 484 kts 306°
2026-05-07 17:36 11.62606 -85.42774 37940 ft 484 kts 307°
2026-05-07 17:37 11.66505 -85.48396 37930 ft 485 kts 306°
2026-05-07 17:37 11.70369 -85.53991 37932 ft 485 kts 306°
2026-05-07 17:38 11.74252 -85.59624 37923 ft 485 kts 306°
2026-05-07 17:38 11.78142 -85.65273 37916 ft 485 kts 306°
2026-05-07 17:39 11.82028 -85.70919 37910 ft 485 kts 306°
2026-05-07 17:39 11.85912 -85.76566 37907 ft 485 kts 306°
2026-05-07 17:40 11.89796 -85.82216 37903 ft 485 kts 306°
2026-05-07 17:40 11.93684 -85.87875 37903 ft 486 kts 306°
2026-05-07 17:41 11.97570 -85.93534 37905 ft 486 kts 306°
2026-05-07 17:41 12.01449 -85.99185 37902 ft 486 kts 306°
2026-05-07 17:42 12.05328 -86.04837 37905 ft 486 kts 306°
2026-05-07 17:42 12.09184 -86.10459 37905 ft 486 kts 306°
2026-05-07 17:43 12.12943 -86.16210 37905 ft 486 kts 302°
2026-05-07 17:43 12.16160 -86.22317 37902 ft 487 kts 296°
2026-05-07 17:44 12.19017 -86.28612 37904 ft 487 kts 296°
2026-05-07 17:44 12.21861 -86.34923 37904 ft 487 kts 296°
2026-05-07 17:45 12.24689 -86.41198 37905 ft 487 kts 296°
2026-05-07 17:45 12.27536 -86.47510 37905 ft 487 kts 296°
2026-05-07 17:46 12.30362 -86.53778 37906 ft 487 kts 296°
2026-05-07 17:46 12.33202 -86.60080 37908 ft 487 kts 296°
2026-05-07 17:47 12.36040 -86.66384 37912 ft 486 kts 296°
2026-05-07 17:47 12.38874 -86.72683 37914 ft 486 kts 296°
2026-05-07 17:48 12.41686 -86.78934 37919 ft 486 kts 295°
2026-05-07 17:48 12.44515 -86.85231 37921 ft 486 kts 295°
2026-05-07 17:49 12.47339 -86.91519 37930 ft 485 kts 295°
2026-05-07 17:49 12.50160 -86.97803 37931 ft 485 kts 295°
2026-05-07 17:50 12.52975 -87.04076 37933 ft 484 kts 295°
2026-05-07 17:50 12.55789 -87.10355 37932 ft 484 kts 295°
2026-05-07 17:51 12.58580 -87.16586 37939 ft 484 kts 295°
2026-05-07 17:51 12.61394 -87.22868 37925 ft 484 kts 295°
2026-05-07 17:52 12.64205 -87.29142 37916 ft 484 kts 295°
2026-05-07 17:52 12.67015 -87.35416 37913 ft 484 kts 295°
2026-05-07 17:53 12.69824 -87.41691 37914 ft 484 kts 295°
2026-05-07 17:53 12.72630 -87.47965 37912 ft 483 kts 295°
2026-05-07 17:54 12.75430 -87.54227 37908 ft 483 kts 295°
2026-05-07 17:54 12.78236 -87.60508 37903 ft 483 kts 295°
2026-05-07 17:55 12.81022 -87.66748 37897 ft 483 kts 295°
2026-05-07 17:55 12.83824 -87.73026 37890 ft 483 kts 295°
2026-05-07 17:56 12.86621 -87.79297 37887 ft 483 kts 295°
2026-05-07 17:56 12.89409 -87.85579 37866 ft 483 kts 295°
2026-05-07 17:57 12.91713 -87.90799 37867 ft 483 kts 295°
2026-05-07 17:57 12.94960 -87.98153 37860 ft 483 kts 295°
2026-05-07 17:58 12.97735 -88.04434 37857 ft 483 kts 295°
2026-05-07 17:58 13.00492 -88.10676 37849 ft 483 kts 294°
2026-05-07 17:59 13.03271 -88.16975 37836 ft 483 kts 294°
2026-05-07 17:59 13.06048 -88.23271 37832 ft 483 kts 294°
2026-05-07 18:00 13.08819 -88.29562 37831 ft 483 kts 294°
2026-05-07 18:00 13.11588 -88.35859 37836 ft 483 kts 294°
2026-05-07 18:01 13.14358 -88.42158 37839 ft 483 kts 294°
2026-05-07 18:01 13.17125 -88.48459 37843 ft 484 kts 294°
2026-05-07 18:02 13.21263 -88.57905 37852 ft 484 kts 294°
2026-05-07 18:03 13.24033 -88.64223 37859 ft 484 kts 294°
2026-05-07 18:03 13.26798 -88.70536 37866 ft 484 kts 294°
2026-05-07 18:04 13.29565 -88.76853 37886 ft 484 kts 294°
2026-05-07 18:04 13.32331 -88.83176 37880 ft 484 kts 294°
2026-05-07 18:05 13.35094 -88.89493 37890 ft 484 kts 294°
2026-05-07 18:05 13.37855 -88.95808 37895 ft 484 kts 294°
2026-05-07 18:06 13.40596 -89.02086 37894 ft 484 kts 294°
2026-05-07 18:06 13.43193 -89.08480 37903 ft 484 kts 290°
2026-05-07 18:07 13.44913 -89.13968 37903 ft 484 kts 287°
2026-05-07 18:07 13.46834 -89.20612 37917 ft 484 kts 287°
2026-05-07 18:08 13.48753 -89.27267 37941 ft 484 kts 287°
2026-05-07 18:08 13.50669 -89.33907 37976 ft 484 kts 287°
2026-05-07 18:09 13.52586 -89.40551 37991 ft 483 kts 287°
2026-05-07 18:09 13.54501 -89.47190 38004 ft 483 kts 287°
2026-05-07 18:10 13.56413 -89.53827 38018 ft 483 kts 287°
2026-05-07 18:10 13.58325 -89.60456 38024 ft 482 kts 286°
2026-05-07 18:11 13.60214 -89.67023 38048 ft 481 kts 286°
2026-05-07 18:11 13.62112 -89.73638 38060 ft 481 kts 286°
2026-05-07 18:12 13.64001 -89.80240 38068 ft 480 kts 286°
2026-05-07 18:12 13.65887 -89.86833 38076 ft 480 kts 286°
2026-05-07 18:13 13.67775 -89.93432 38081 ft 480 kts 286°
2026-05-07 18:13 13.69662 -90.00030 38084 ft 480 kts 286°
2026-05-07 18:14 13.71537 -90.06585 38092 ft 480 kts 286°
2026-05-07 18:14 13.73424 -90.13190 38111 ft 480 kts 286°
2026-05-07 18:15 13.75333 -90.19792 38119 ft 480 kts 286°
2026-05-07 18:15 13.77245 -90.26390 38124 ft 480 kts 286°
2026-05-07 18:16 13.79150 -90.32987 38125 ft 480 kts 286°
2026-05-07 18:16 13.81016 -90.39554 38134 ft 480 kts 286°
2026-05-07 18:17 13.82888 -90.46158 38155 ft 480 kts 286°
2026-05-07 18:17 13.84764 -90.52769 38162 ft 480 kts 286°
2026-05-07 18:18 13.86639 -90.59376 38153 ft 480 kts 286°
2026-05-07 18:18 13.88515 -90.65987 38159 ft 481 kts 286°
2026-05-07 18:19 13.90393 -90.72613 38159 ft 481 kts 286°
2026-05-07 18:19 13.92373 -90.79202 38148 ft 482 kts 289°
2026-05-07 18:20 13.94929 -90.85600 38142 ft 482 kts 295°
2026-05-07 18:20 13.98074 -90.91709 38136 ft 483 kts 299°
2026-05-07 18:21 14.01413 -90.97718 38133 ft 483 kts 299°
2026-05-07 18:21 14.04753 -91.03726 38128 ft 483 kts 299°
2026-05-07 18:22 14.08071 -91.09707 38122 ft 483 kts 299°
2026-05-07 18:22 14.11410 -91.15735 38109 ft 483 kts 299°
2026-05-07 18:23 14.14748 -91.21765 38064 ft 484 kts 299°
2026-05-07 18:23 14.18087 -91.27801 38023 ft 484 kts 299°
2026-05-07 18:24 14.21434 -91.33835 37987 ft 484 kts 300°
2026-05-07 18:24 14.24800 -91.39865 37958 ft 484 kts 300°
2026-05-07 18:25 14.28173 -91.45906 37953 ft 484 kts 300°
2026-05-07 18:25 14.31523 -91.51910 37942 ft 485 kts 300°
2026-05-07 18:26 14.34895 -91.57957 37939 ft 485 kts 300°
2026-05-07 18:26 14.38265 -91.64008 37933 ft 485 kts 300°
2026-05-07 18:27 14.41630 -91.70052 37930 ft 485 kts 300°
2026-05-07 18:27 14.44996 -91.76103 37931 ft 485 kts 300°
2026-05-07 18:28 14.48360 -91.82154 37931 ft 485 kts 300°
2026-05-07 18:28 14.51721 -91.88206 37933 ft 485 kts 300°
2026-05-07 18:29 14.55065 -91.94229 37929 ft 485 kts 300°
2026-05-07 18:29 14.58424 -92.00284 37934 ft 485 kts 300°
2026-05-07 18:30 14.61783 -92.06341 37934 ft 485 kts 299°
2026-05-07 18:30 14.65139 -92.12400 37930 ft 486 kts 299°
2026-05-07 18:31 14.68512 -92.18468 37934 ft 486 kts 300°
2026-05-07 18:31 14.71903 -92.24523 37933 ft 486 kts 300°
2026-05-07 18:32 14.75271 -92.30539 37930 ft 486 kts 300°
2026-05-07 18:32 14.78668 -92.36610 37934 ft 486 kts 300°
2026-05-07 18:33 14.82284 -92.42533 37934 ft 487 kts 302°
2026-05-07 18:33 14.85974 -92.48426 37932 ft 487 kts 303°
2026-05-07 18:34 14.89663 -92.54318 37931 ft 487 kts 302°
2026-05-07 18:34 14.93348 -92.60214 37933 ft 487 kts 302°
2026-05-07 18:35 14.97035 -92.66118 37931 ft 488 kts 302°
2026-05-07 18:35 15.00714 -92.72014 37935 ft 488 kts 302°
2026-05-07 18:36 15.04391 -92.77925 37932 ft 488 kts 302°
2026-05-07 18:36 15.08062 -92.83834 37931 ft 488 kts 302°
2026-05-07 18:37 15.11738 -92.89751 37931 ft 488 kts 302°
2026-05-07 18:37 15.15391 -92.95632 37930 ft 488 kts 302°
2026-05-07 18:38 15.19072 -93.01564 37933 ft 489 kts 302°
2026-05-07 18:38 15.22756 -93.07502 37934 ft 489 kts 302°
2026-05-07 18:39 15.26437 -93.13440 37931 ft 489 kts 302°
2026-05-07 18:39 15.30092 -93.19341 37932 ft 489 kts 302°
2026-05-07 18:40 15.33768 -93.25280 37933 ft 489 kts 302°
2026-05-07 18:40 15.37446 -93.31227 37930 ft 489 kts 302°
2026-05-07 18:41 15.41120 -93.37173 37931 ft 489 kts 302°
2026-05-07 18:41 15.44804 -93.43140 37935 ft 490 kts 302°
2026-05-07 18:42 15.48481 -93.49098 37946 ft 490 kts 302°
2026-05-07 18:42 15.52129 -93.55016 37941 ft 490 kts 302°
2026-05-07 18:43 15.55812 -93.60994 37937 ft 490 kts 302°
2026-05-07 18:43 15.59483 -93.66956 37937 ft 490 kts 302°
2026-05-07 18:44 15.63154 -93.72925 37947 ft 491 kts 302°
2026-05-07 18:44 15.66830 -93.78904 37938 ft 491 kts 302°
2026-05-07 18:45 15.70482 -93.84849 37942 ft 491 kts 302°
2026-05-07 18:45 15.74159 -93.90837 37939 ft 491 kts 302°
2026-05-07 18:46 15.77835 -93.96830 37944 ft 491 kts 302°
2026-05-07 18:46 15.81479 -94.02782 37940 ft 491 kts 302°
2026-05-07 18:47 15.85169 -94.08821 37936 ft 491 kts 302°
2026-05-07 18:47 15.88811 -94.14781 37932 ft 491 kts 302°
2026-05-07 18:48 15.92479 -94.20783 37935 ft 491 kts 302°
2026-05-07 18:48 15.96143 -94.26784 37927 ft 491 kts 302°
2026-05-07 18:49 15.99808 -94.32792 37931 ft 491 kts 302°
2026-05-07 18:49 16.03446 -94.38757 37934 ft 491 kts 302°
2026-05-07 18:50 16.07103 -94.44761 37928 ft 491 kts 302°
2026-05-07 18:50 16.10761 -94.50767 37925 ft 491 kts 302°
2026-05-07 18:51 16.14415 -94.56777 37923 ft 491 kts 302°
2026-05-07 18:51 16.18068 -94.62789 37936 ft 491 kts 302°
2026-05-07 18:52 16.21126 -94.67825 37963 ft 491 kts 302°
2026-05-07 18:52 16.24753 -94.73802 37985 ft 491 kts 302°
2026-05-07 18:53 16.28289 -94.79631 37987 ft 491 kts 302°
2026-05-07 18:53 16.31933 -94.85646 37988 ft 491 kts 302°
2026-05-07 18:54 16.35582 -94.91674 37979 ft 491 kts 302°
2026-05-07 18:54 16.39223 -94.97691 37970 ft 491 kts 302°
2026-05-07 18:55 16.42865 -95.03710 37978 ft 491 kts 301°
2026-05-07 18:55 16.46484 -95.09750 37977 ft 491 kts 300°
2026-05-07 18:56 16.49892 -95.15930 37979 ft 491 kts 299°
2026-05-07 18:56 16.53246 -95.22073 37980 ft 491 kts 299°
2026-05-07 18:57 16.56634 -95.28269 37985 ft 491 kts 299°
2026-05-07 18:57 16.60015 -95.34454 37988 ft 491 kts 299°
2026-05-07 18:58 16.63398 -95.40646 37995 ft 491 kts 299°
2026-05-07 18:58 16.66779 -95.46840 37997 ft 491 kts 299°
2026-05-07 18:59 16.70156 -95.53029 38003 ft 490 kts 299°
2026-05-07 18:59 16.73531 -95.59220 38012 ft 490 kts 299°
2026-05-07 19:00 16.76905 -95.65412 38014 ft 490 kts 298°
2026-05-07 19:00 16.80279 -95.71611 38022 ft 490 kts 298°
2026-05-07 19:01 16.83650 -95.77811 38030 ft 490 kts 298°
2026-05-07 19:01 16.86990 -95.83971 38040 ft 489 kts 298°
2026-05-07 19:02 16.90345 -95.90170 38049 ft 489 kts 298°
2026-05-07 19:02 16.93700 -95.96366 38059 ft 489 kts 298°
2026-05-07 19:03 16.97049 -96.02552 38070 ft 488 kts 298°
2026-05-07 19:03 17.00392 -96.08732 38090 ft 488 kts 298°
2026-05-07 19:04 17.03713 -96.14881 38110 ft 488 kts 298°
2026-05-07 19:04 17.07049 -96.21057 38133 ft 487 kts 298°
2026-05-07 19:05 17.10381 -96.27234 38155 ft 487 kts 298°
2026-05-07 19:05 17.13711 -96.33409 38135 ft 486 kts 298°
2026-05-07 19:06 17.17030 -96.39575 38138 ft 486 kts 298°
2026-05-07 19:06 17.21982 -96.48796 38137 ft 485 kts 298°
2026-05-07 19:07 17.25295 -96.54967 38150 ft 486 kts 298°
2026-05-07 19:07 17.28613 -96.61147 38149 ft 485 kts 298°
2026-05-07 19:08 17.31921 -96.67313 38149 ft 485 kts 298°
2026-05-07 19:08 17.35215 -96.73458 38151 ft 485 kts 298°
2026-05-07 19:09 17.38514 -96.79619 38134 ft 485 kts 298°
2026-05-07 19:09 17.41815 -96.85789 38145 ft 485 kts 298°
2026-05-07 19:10 17.45109 -96.91952 38134 ft 484 kts 298°
2026-05-07 19:10 17.48409 -96.98128 38116 ft 484 kts 298°
2026-05-07 19:11 17.51703 -97.04294 38109 ft 484 kts 298°
2026-05-07 19:11 17.54967 -97.10419 38110 ft 483 kts 298°
2026-05-07 19:12 17.58540 -97.16406 38108 ft 484 kts 303°
2026-05-07 19:12 17.62673 -97.21996 38107 ft 485 kts 309°
2026-05-07 19:13 17.67329 -97.27134 38097 ft 485 kts 314°
2026-05-07 19:13 17.72196 -97.32045 38095 ft 485 kts 315°
2026-05-07 19:14 17.77038 -97.36916 38102 ft 484 kts 315°
2026-05-07 19:14 17.81896 -97.41816 38096 ft 484 kts 314°
2026-05-07 19:15 17.86744 -97.46716 38100 ft 483 kts 314°
2026-05-07 19:15 17.91620 -97.51649 38098 ft 482 kts 314°
2026-05-07 19:16 17.96440 -97.56529 38104 ft 482 kts 314°
2026-05-07 19:16 18.01231 -97.61382 38101 ft 471 kts 314°
2026-05-07 19:17 18.05901 -97.66117 38113 ft 469 kts 314°
2026-05-07 19:17 18.10631 -97.70918 38116 ft 468 kts 314°
2026-05-07 19:18 18.15302 -97.75660 38124 ft 468 kts 314°
2026-05-07 19:18 18.17651 -97.78046 37908 ft 468 kts 314°
2026-05-07 19:18 18.19989 -97.80422 37658 ft 466 kts 314°
2026-05-07 19:19 18.22318 -97.82790 37371 ft 464 kts 314°
2026-05-07 19:19 18.24636 -97.85149 36961 ft 463 kts 314°
2026-05-07 19:19 18.26952 -97.87513 36391 ft 463 kts 314°
2026-05-07 19:19 18.29279 -97.89887 35692 ft 466 kts 314°
2026-05-07 19:20 18.31623 -97.92280 34939 ft 470 kts 314°
2026-05-07 19:20 18.33984 -97.94689 34175 ft 474 kts 314°
2026-05-07 19:20 18.36335 -97.97088 33393 ft 478 kts 314°
2026-05-07 19:20 18.38735 -97.99538 32613 ft 483 kts 315°
2026-05-07 19:21 18.41154 -98.02004 31921 ft 484 kts 315°
2026-05-07 19:21 18.43575 -98.04473 31283 ft 485 kts 314°
2026-05-07 19:21 18.45995 -98.06945 30687 ft 485 kts 314°
2026-05-07 19:21 18.48429 -98.09431 30075 ft 486 kts 314°
2026-05-07 19:22 18.50862 -98.11917 29406 ft 486 kts 314°
2026-05-07 19:22 18.53295 -98.14405 28680 ft 487 kts 314°
2026-05-07 19:22 18.55705 -98.16869 27959 ft 488 kts 315°
2026-05-07 19:22 18.58149 -98.19370 27352 ft 488 kts 314°
2026-05-07 19:23 18.60579 -98.21855 26887 ft 485 kts 314°
2026-05-07 19:23 18.62982 -98.24313 26572 ft 475 kts 314°
2026-05-07 19:23 18.65322 -98.26706 26468 ft 461 kts 314°
2026-05-07 19:23 18.67593 -98.29033 26352 ft 448 kts 314°
2026-05-07 19:24 18.69711 -98.31379 26250 ft 433 kts 306°
2026-05-07 19:24 18.71300 -98.33993 26256 ft 414 kts 294°
2026-05-07 19:24 18.72341 -98.36780 26011 ft 403 kts 283°
2026-05-07 19:24 18.72942 -98.39646 25671 ft 396 kts 278°
2026-05-07 19:25 18.73444 -98.42491 25326 ft 391 kts 277°
2026-05-07 19:25 18.73930 -98.45293 24991 ft 386 kts 277°
2026-05-07 19:25 18.74418 -98.48066 24452 ft 381 kts 277°
2026-05-07 19:25 18.74906 -98.50793 23859 ft 377 kts 277°
2026-05-07 19:26 18.75393 -98.53491 23570 ft 371 kts 277°
2026-05-07 19:26 18.75873 -98.56150 23240 ft 366 kts 277°
2026-05-07 19:26 18.76349 -98.58773 22916 ft 361 kts 277°
2026-05-07 19:26 18.76819 -98.61360 22586 ft 356 kts 277°
2026-05-07 19:27 18.77284 -98.63911 22273 ft 351 kts 277°
2026-05-07 19:27 18.77741 -98.66427 21956 ft 346 kts 277°
2026-05-07 19:27 18.78193 -98.68909 21644 ft 342 kts 278°
2026-05-07 19:27 18.78633 -98.71331 21327 ft 337 kts 278°
2026-05-07 19:28 18.79073 -98.73754 20983 ft 334 kts 278°
2026-05-07 19:28 18.79509 -98.76160 20603 ft 332 kts 278°
2026-05-07 19:28 18.79941 -98.78549 20223 ft 330 kts 278°
2026-05-07 19:28 18.80371 -98.80928 19839 ft 328 kts 278°
2026-05-07 19:29 18.80831 -98.83286 19451 ft 327 kts 280°
2026-05-07 19:29 18.81331 -98.85626 19052 ft 325 kts 280°
2026-05-07 19:29 18.81833 -98.87948 18680 ft 323 kts 281°
2026-05-07 19:29 18.82331 -98.90258 18314 ft 321 kts 281°
2026-05-07 19:30 18.82821 -98.92551 17955 ft 319 kts 280°
2026-05-07 19:30 18.83306 -98.94834 17591 ft 317 kts 280°
2026-05-07 19:30 18.83787 -98.97108 17206 ft 315 kts 281°
2026-05-07 19:30 18.84264 -98.99364 16884 ft 312 kts 280°
2026-05-07 19:31 18.84671 -99.01573 16819 ft 311 kts 279°
2026-05-07 19:31 18.85066 -99.03830 16810 ft 312 kts 278°
2026-05-07 19:31 18.85460 -99.06090 16805 ft 312 kts 278°
2026-05-07 19:31 18.85856 -99.08363 16804 ft 312 kts 278°
2026-05-07 19:32 18.86250 -99.10623 16794 ft 312 kts 278°
2026-05-07 19:32 18.86646 -99.12883 16796 ft 312 kts 279°
2026-05-07 19:32 18.87269 -99.15085 16786 ft 314 kts 293°
2026-05-07 19:32 18.88350 -99.17098 16795 ft 316 kts 304°
2026-05-07 19:33 18.89629 -99.18956 16798 ft 316 kts 306°
2026-05-07 19:33 18.90951 -99.20809 16787 ft 316 kts 306°
2026-05-07 19:33 18.92270 -99.22666 16782 ft 316 kts 308°
2026-05-07 19:33 18.93878 -99.24225 16752 ft 316 kts 333°
2026-05-07 19:34 18.95992 -99.24863 16773 ft 315 kts
2026-05-07 19:34 18.98138 -99.24434 16776 ft 310 kts 28°
2026-05-07 19:34 18.99847 -99.23101 16795 ft 305 kts 50°
2026-05-07 19:34 19.01229 -99.21400 16795 ft 305 kts 52°
2026-05-07 19:35 19.02593 -99.19684 16777 ft 305 kts 52°
2026-05-07 19:35 19.03958 -99.17986 16513 ft 306 kts 52°
2026-05-07 19:35 19.05347 -99.16276 16140 ft 305 kts 51°
2026-05-07 19:35 19.06730 -99.14590 15818 ft 302 kts 51°
2026-05-07 19:36 19.08111 -99.12915 15494 ft 298 kts 51°
2026-05-07 19:36 19.09468 -99.11270 15194 ft 295 kts 51°
2026-05-07 19:36 19.10381 -99.10165 14999 ft 294 kts 50°
2026-05-07 19:36 19.11270 -99.09090 14785 ft 291 kts 50°
2026-05-07 19:37 19.13482 -99.06414 14318 ft 285 kts 50°
2026-05-07 19:37 19.14787 -99.04835 13985 ft 282 kts 50°
2026-05-07 19:37 19.15650 -99.03828 13908 ft 273 kts 43°
2026-05-07 19:37 19.17278 -99.02887 13879 ft 268 kts 11°
2026-05-07 19:38 19.19128 -99.02963 13897 ft 268 kts 342°
2026-05-07 19:38 19.20699 -99.03957 13592 ft 263 kts 319°
2026-05-07 19:38 19.22015 -99.05289 13222 ft 260 kts 316°
2026-05-07 19:38 19.23296 -99.06623 12885 ft 255 kts 313°
2026-05-07 19:39 19.24366 -99.08090 12578 ft 249 kts 302°
2026-05-07 19:39 19.25127 -99.09718 12297 ft 242 kts 294°
2026-05-07 19:39 19.25765 -99.11334 12053 ft 234 kts 292°
2026-05-07 19:39 19.26367 -99.12898 11804 ft 224 kts 292°
2026-05-07 19:40 19.26945 -99.14388 11553 ft 213 kts 293°
2026-05-07 19:40 19.27497 -99.15793 11297 ft 200 kts 294°
2026-05-07 19:40 19.28189 -99.17019 10930 ft 192 kts 313°
2026-05-07 19:40 19.29207 -99.17900 10472 ft 187 kts 332°
2026-05-07 19:41 19.30361 -99.18497 10253 ft 184 kts 336°
2026-05-07 19:41 19.31515 -99.19043 10119 ft 185 kts 337°
2026-05-07 19:41 19.32690 -99.19596 10020 ft 184 kts 336°
2026-05-07 19:41 19.33864 -99.20136 9868 ft 184 kts 345°
2026-05-07 19:42 19.35117 -99.20227 9693 ft 181 kts 12°
2026-05-07 19:42 19.36246 -99.19670 9700 ft 181 kts 41°
2026-05-07 19:42 19.37083 -99.18660 9591 ft 183 kts 54°
2026-05-07 19:42 19.37762 -99.17528 9351 ft 181 kts 58°
2026-05-07 19:43 19.38390 -99.16370 9100 ft 181 kts 59°
2026-05-07 19:43 19.39017 -99.15212 8856 ft 181 kts 59°
2026-05-07 19:43 19.39651 -99.14064 8611 ft 180 kts 58°
2026-05-07 19:43 19.40287 -99.12923 8361 ft 179 kts 59°
2026-05-07 19:44 19.40918 -99.11792 8117 ft 178 kts 59°
2026-05-07 19:44 19.41555 -99.10661 7833 ft 178 kts 59°
2026-05-07 19:44 19.42180 -99.09534 7540 ft 177 kts 59°
2026-05-07 19:44 19.42795 -99.08420 7364 ft 177 kts 59°
2026-05-07 19:45 19.43400 -99.07337 7312 ft 145 kts 59°
2026-05-07 19:45 19.43802 -99.06617 7311 ft 81 kts 59°
2026-05-07 19:45 19.43948 -99.06347 7310 ft 23 kts 68°
2026-05-07 19:45 19.43970 -99.06228 7312 ft 12 kts 85°
2026-05-07 19:46 19.43973 -99.06180 7313 ft 0 kts 88°
2026-05-07 19:46 19.43972 -99.06177 7313 ft 2 kts 92°
2026-05-07 19:46 19.43972 -99.06157 7312 ft 4 kts 93°
2026-05-07 19:47 19.43967 -99.06117 7313 ft 6 kts 106°
2026-05-07 19:47 19.43944 -99.06079 7311 ft 6 kts 152°
2026-05-07 19:47 19.43914 -99.06086 7312 ft 5 kts 215°
2026-05-07 19:47 19.43892 -99.06116 7312 ft 6 kts 237°
2026-05-07 19:48 19.43865 -99.06165 7311 ft 8 kts 242°
2026-05-07 19:48 19.43834 -99.06226 7311 ft 12 kts 241°
2026-05-07 19:48 19.43789 -99.06307 7312 ft 13 kts 238°
2026-05-07 19:48 19.43740 -99.06392 7311 ft 14 kts 239°
2026-05-07 19:49 19.43690 -99.06483 7311 ft 15 kts 239°
2026-05-07 19:49 19.43635 -99.06582 7311 ft 16 kts 239°
2026-05-07 19:49 19.43568 -99.06682 7312 ft 15 kts 223°
2026-05-07 19:49 19.43494 -99.06734 7311 ft 10 kts 208°
2026-05-07 19:50 19.43434 -99.06766 7311 ft 10 kts 207°
2026-05-07 19:50 19.43366 -99.06805 7311 ft 12 kts 212°
2026-05-07 19:50 19.43304 -99.06868 7313 ft 13 kts 235°
2026-05-07 19:50 19.43254 -99.06954 7312 ft 13 kts 239°
2026-05-07 19:51 19.43222 -99.07014 7311 ft 14 kts 244°
2026-05-07 19:51 19.43223 -99.07100 7311 ft 20 kts 289°
2026-05-07 19:51 19.43245 -99.07248 7312 ft 21 kts 256°
2026-05-07 19:51 19.43179 -99.07384 7313 ft 21 kts 240°
2026-05-07 19:52 19.43102 -99.07522 7312 ft 22 kts 238°
2026-05-07 19:52 19.43020 -99.07663 7312 ft 22 kts 238°
2026-05-07 19:52 19.42930 -99.07786 7312 ft 18 kts 221°
2026-05-07 19:52 19.42845 -99.07846 7311 ft 14 kts 208°
2026-05-07 19:53 19.42766 -99.07908 7311 ft 15 kts 232°
2026-05-07 19:53 19.42708 -99.08007 7311 ft 17 kts 239°
2026-05-07 19:53 19.42656 -99.08099 7313 ft 14 kts 242°
2026-05-07 19:53 19.42589 -99.08135 7311 ft 11 kts 163°
2026-05-07 19:54 19.42516 -99.08094 7311 ft 12 kts 148°
2026-05-07 19:54 19.42449 -99.08080 7313 ft 10 kts 213°
2026-05-07 19:54 19.42384 -99.08108 7311 ft 10 kts 180°
2026-05-07 19:54 19.42318 -99.08096 7311 ft 4 kts 166°
2026-05-07 19:55 19.42311 -99.08094 7311 ft 1 kts 166°
2026-05-07 19:55 19.42307 -99.08093 7313 ft 0 kts 166°